DL9MFL-6 Weather Reports


time (UTC)temp
F
wind
direction
speed
knots
gust
knots
rain 1hr
in
rain 24hr
in
rain mn
in
humidity
%
barometer
mb
20260904125529 84 275 8.7 16.5 0.00 0.00 0.00 41 1015.0
20260904125429 84 278 8.7 16.5 0.00 0.00 0.00 42 1015.0
20260904125329 84 214 8.7 16.5 0.00 0.00 0.00 41 1015.1
20260904125229 84 263 8.7 16.5 0.00 0.00 0.00 42 1015.1
20260904125129 84 250 8.7 16.5 0.00 0.00 0.00 42 1015.1
20260904125101 84 234 8.7 16.5 0.00 0.00 0.00 42 1015.1
20260904125028 84 259 8.7 16.5 0.00 0.00 0.00 42 1015.1
20260904124929 84 229 9.6 16.5 0.00 0.00 0.00 41 1015.1
20260904124828 84 265 9.6 16.5 0.00 0.00 0.00 41 1015.1
20260904124728 84 242 9.6 16.5 0.00 0.00 0.00 41 1015.1
20260904124628 84 248 9.6 16.5 0.00 0.00 0.00 41 1015.2
20260904124601 84 217 9.6 16.5 0.00 0.00 0.00 40 1015.2
20260904124528 84 244 9.6 16.5 0.00 0.00 0.00 40 1015.2
20260904124427 84 210 9.6 18.2 0.00 0.00 0.00 41 1015.2
20260904124328 84 282 9.6 18.2 0.00 0.00 0.00 42 1015.3
20260904124227 84 222 8.7 18.2 0.00 0.00 0.00 41 1015.4
20260904124122 84 224 8.7 18.2 0.00 0.00 0.00 41 1015.4
20260904124102 84 207 8.7 18.2 0.00 0.00 0.00 42 1015.4
20260904124022 84 271 8.7 18.2 0.00 0.00 0.00 42 1015.3
20260904123922 84 225 8.7 18.2 0.00 0.00 0.00 41 1015.4
20260904123822 84 250 7.8 18.2 0.00 0.00 0.00 41 1015.4
20260904123721 84 269 7.8 18.2 0.00 0.00 0.00 41 1015.5
20260904123618 84 226 7.8 18.2 0.00 0.00 0.00 41 1015.5
20260904123601 83 261 7.8 18.2 0.00 0.00 0.00 41 1015.5
20260904123516 84 282 7.8 18.2 0.00 0.00 0.00 42 1015.5
20260904123416 83 283 7.8 17.4 0.00 0.00 0.00 42 1015.4
20260904123326 83 232 7.8 17.4 0.00 0.00 0.00 42 1015.5
20260904123319 83 265 7.8 17.4 0.00 0.00 0.00 40 1015.5
20260904123315 84 209 7.8 17.4 0.00 0.00 0.00 41 1015.5
20260904123311 83 237 7.8 17.4 0.00 0.00 0.00 42 1015.5
20260904123010 83 217 7.8 17.4 0.00 0.00 0.00 42 1015.5
20260904122910 83 232 7.8 17.4 0.00 0.00 0.00 42 1015.5
20260904122810 83 254 8.7 17.4 0.00 0.00 0.00 42 1015.5
20260904122710 83 227 8.7 17.4 0.00 0.00 0.00 42 1015.5
20260904122608 83 201 8.7 17.4 0.00 0.00 0.00 41 1015.6
20260904122601 83 186 8.7 17.4 0.00 0.00 0.00 41 1015.6
20260904122504 83 217 8.7 17.4 0.00 0.00 0.00 42 1015.6
20260904122404 83 277 8.7 17.4 0.00 0.00 0.00 43 1015.6
20260904122325 83 228 9.6 17.4 0.00 0.00 0.00 43 1015.6
20260904122321 83 236 9.6 17.4 0.00 0.00 0.00 43 1015.6
20260904122317 83 244 9.6 17.4 0.00 0.00 0.00 43 1015.6
20260904122313 83 242 9.6 17.4 0.00 0.00 0.00 43 1015.6
20260904122002 83 257 9.6 17.4 0.00 0.00 0.00 43 1015.6
20260904121902 83 289 9.6 17.4 0.00 0.00 0.00 43 1015.7
20260904121826 83 266 8.7 17.4 0.00 0.00 0.00 42 1015.7
20260904121821 83 216 8.7 17.4 0.00 0.00 0.00 43 1015.7
20260904121817 83 276 8.7 17.4 0.00 0.00 0.00 42 1015.8
20260904121812 83 270 8.7 17.4 0.00 0.00 0.00 42 1015.7
20260904121502 83 258 8.7 15.6 0.00 0.00 0.00 42 1015.7
20260904121402 83 207 7.8 16.5 0.00 0.00 0.00 42 1015.7
20260904121301 83 286 7.8 16.5 0.00 0.00 0.00 42 1016.0
20260904121202 83 277 7.8 16.5 0.00 0.00 0.00 43 1015.7
20260904121101 83 13 7.8 16.5 0.00 0.00 0.00 42 1015.8
20260904121001 83 235 8.7 16.5 0.00 0.00 0.00 43 1015.7
20260904120901 83 231 8.7 16.5 0.00 0.00 0.00 42 1015.8
20260904120802 82 194 8.7 16.5 0.00 0.00 0.00 41 1015.8
20260904120701 82 226 9.6 16.5 0.00 0.00 0.00 41 1016.0
20260904120601 82 186 9.6 16.5 0.00 0.00 0.00 42 1016.0
20260904120501 82 210 9.6 16.5 0.00 0.00 0.00 43 1016.0
20260904120401 82 192 9.6 15.6 0.00 0.00 0.00 42 1016.0
20260904120301 82 262 9.6 15.6 0.00 0.00 0.00 42 1016.0
20260904120201 82 294 9.6 15.6 0.00 0.00 0.00 42 1016.0
20260904120109 82 244 7.8 15.6 0.00 0.00 0.00 42 1016.0
20260904120101 82 269 8.7 15.6 0.00 0.00 0.00 41 1016.1
20260904120049 82 259 8.7 15.6 0.00 0.00 0.00 42 1016.1
20260904120041 82 265 7.8 15.6 0.00 0.00 0.00 42 1016.1
20260904115820 82 263 7.8 15.6 0.00 0.00 0.00 42 1016.0
20260904115816 82 247 7.8 15.6 0.00 0.00 0.00 43 1016.1
20260904115812 82 244 7.8 15.6 0.00 0.00 0.00 42 1016.0
20260904115501 82 261 7.8 15.6 0.00 0.00 0.00 43 1016.0
20260904115401 82 268 8.7 15.6 0.00 0.00 0.00 42 1016.0
20260904115319 82 198 8.7 18.2 0.00 0.00 0.00 42 1016.0
20260904115315 82 265 9.6 18.2 0.00 0.00 0.00 42 1016.0
20260904115311 82 261 9.6 18.2 0.00 0.00 0.00 43 1016.1
20260904115000 82 298 9.6 18.2 0.00 0.00 0.00 42 1016.0
20260904114900 82 224 9.6 18.2 0.00 0.00 0.00 42 1016.1
20260904114800 82 223 8.7 18.2 0.00 0.00 0.00 42 1016.1
20260904114700 82 202 8.7 18.2 0.00 0.00 0.00 42 1016.1
20260904114601 82 192 9.6 18.2 0.00 0.00 0.00 41 1016.1
20260904114501 82 219 8.7 18.2 0.00 0.00 0.00 42 1016.1
20260904114401 82 220 8.7 18.2 0.00 0.00 0.00 43 1016.1
20260904114301 82 227 7.8 17.4 0.00 0.00 0.00 43 1016.1
20260904114201 82 236 7.8 16.5 0.00 0.00 0.00 44 1016.1
20260904114101 82 216 8.7 13.9 0.00 0.00 0.00 43 1016.1
20260904114001 82 263 7.8 13.9 0.00 0.00 0.00 42 1016.2
20260904113901 82 228 8.7 13.9 0.00 0.00 0.00 43 1016.1
20260904113801 82 255 8.7 13.9 0.00 0.00 0.00 42 1016.2
20260904113701 82 271 8.7 15.6 0.00 0.00 0.00 42 1016.2
20260904113601 82 221 8.7 16.5 0.00 0.00 0.00 44 1016.2
20260904113501 81 225 8.7 16.5 0.00 0.00 0.00 43 1016.2
20260904113401 81 207 8.7 16.5 0.00 0.00 0.00 44 1016.2
20260904113301 81 262 8.7 16.5 0.00 0.00 0.00 44 1016.2
20260904113201 81 265 9.6 16.5 0.00 0.00 0.00 43 1016.2
20260904113101 81 278 8.7 16.5 0.00 0.00 0.00 43 1016.2
20260904112956 81 226 8.7 16.5 0.00 0.00 0.00 44 1016.2
20260904112856 81 242 8.7 16.5 0.00 0.00 0.00 44 1016.2
20260904112756 81 239 8.7 16.5 0.00 0.00 0.00 44 1016.3
20260904112656 81 259 8.7 16.5 0.00 0.00 0.00 43 1016.3
20260904112603 81 251 8.7 15.6 0.00 0.00 0.00 44 1016.4
20260904112556 81 271 8.7 15.6 0.00 0.00 0.00 44 1016.4
20260904112453 81 275 8.7 15.6 0.00 0.00 0.00 44 1016.4
20260904112353 81 240 8.7 15.6 0.00 0.00 0.00 44 1016.4
20260904112253 81 237 8.7 15.6 0.00 0.00 0.00 43 1016.4
20260904112154 81 235 9.6 15.6 0.00 0.00 0.00 44 1016.4
20260904112100 81 221 9.6 15.6 0.00 0.00 0.00 44 1016.5
20260904112054 81 264 9.6 15.6 0.00 0.00 0.00 44 1016.5
20260904111954 81 238 9.6 15.6 0.00 0.00 0.00 43 1016.4
20260904111853 81 265 9.6 15.6 0.00 0.00 0.00 43 1016.4
20260904111825 81 236 8.7 15.6 0.00 0.00 0.00 44 1016.7
20260904111818 81 196 9.6 15.6 0.00 0.00 0.00 43 1016.5
20260904111813 81 269 8.7 15.6 0.00 0.00 0.00 43 1016.5
20260904111554 81 259 8.7 15.6 0.00 0.00 0.00 44 1016.7
20260904111454 81 279 7.8 15.6 0.00 0.00 0.00 44 1016.5
20260904111354 81 227 7.0 14.8 0.00 0.00 0.00 44 1016.5
20260904111331 81 292 7.0 14.8 0.00 0.00 0.00 44 1016.7
20260904111316 81 255 7.0 14.8 0.00 0.00 0.00 43 1016.5
20260904111312 81 284 7.0 14.8 0.00 0.00 0.00 44 1016.6
20260904111053 81 210 7.0 14.8 0.00 0.00 0.00 44 1016.7
20260904110953 81 281 6.1 14.8 0.00 0.00 0.00 44 1016.6
20260904110854 81 269 6.1 13.0 0.00 0.00 0.00 45 1016.7
20260904110747 81 257 7.0 13.9 0.00 0.00 0.00 44 1016.6
20260904110647 81 257 7.8 13.9 0.00 0.00 0.00 45 1016.7
20260904110600 81 205 7.8 15.6 0.00 0.00 0.00 44 1016.7
20260904110547 81 222 7.8 15.6 0.00 0.00 0.00 44 1016.7
20260904110447 81 208 8.7 15.6 0.00 0.00 0.00 45 1016.8
20260904110347 80 234 8.7 15.6 0.00 0.00 0.00 45 1016.8
20260904110241 80 278 7.8 15.6 0.00 0.00 0.00 44 1016.8
20260904110142 80 263 7.8 15.6 0.00 0.00 0.00 45 1016.7
20260904110101 80 231 7.8 15.6 0.00 0.00 0.00 44 1016.8
20260904110054 80 240 7.8 14.8 0.00 0.00 0.00 45 1017.0
20260904110049 80 271 7.8 15.6 0.00 0.00 0.00 44 1016.8
20260904110045 80 254 8.7 15.6 0.00 0.00 0.00 44 1016.8
20260904110037 81 262 8.7 15.6 0.00 0.00 0.00 44 1016.8
20260904105816 80 235 7.8 15.6 0.00 0.00 0.00 45 1016.8
20260904105811 80 246 7.8 15.6 0.00 0.00 0.00 45 1016.8
20260904105534 80 233 7.8 14.8 0.00 0.00 0.00 45 1017.0
20260904105434 80 192 7.8 14.8 0.00 0.00 0.00 46 1016.9
20260904105334 80 247 7.0 14.8 0.00 0.00 0.00 45 1016.8
20260904105321 80 264 7.0 14.8 0.00 0.00 0.00 45 1017.0
20260904105316 80 282 7.0 14.8 0.00 0.00 0.00 46 1016.8
20260904105312 80 248 7.0 14.8 0.00 0.00 0.00 45 1017.0
20260904105030 80 279 7.0 14.8 0.00 0.00 0.00 46 1017.0
20260904104929 80 280 6.1 14.8 0.00 0.00 0.00 46 1017.0
20260904104829 80 235 6.1 13.0 0.00 0.00 0.00 46 1017.1
20260904104729 79 288 6.1 13.0 0.00 0.00 0.00 46 1017.1
20260904104629 79 285 6.1 13.0 0.00 0.00 0.00 48 1017.1
20260904104602 79 268 5.2 11.3 0.00 0.00 0.00 48 1017.1
20260904104529 79 229 5.2 11.3 0.00 0.00 0.00 47 1017.1
20260904104429 79 283 6.1 11.3 0.00 0.00 0.00 46 1017.1
20260904104329 79 261 6.1 11.3 0.00 0.00 0.00 46 1017.1
20260904104229 79 277 7.0 13.0 0.00 0.00 0.00 49 1017.2
20260904104129 79 202 7.0 13.0 0.00 0.00 0.00 46 1017.2
20260904104101 79 213 7.0 13.0 0.00 0.00 0.00 46 1017.2
20260904104029 79 229 7.0 13.0 0.00 0.00 0.00 46 1017.2
20260904103929 79 219 7.0 14.8 0.00 0.00 0.00 47 1017.2
20260904103833 79 223 7.8 14.8 0.00 0.00 0.00 46 1017.3
20260904103829 79 258 7.8 14.8 0.00 0.00 0.00 46 1017.2
20260904103817 79 205 7.8 14.8 0.00 0.00 0.00 47 1017.2
20260904103813 79 207 7.8 14.8 0.00 0.00 0.00 46 1017.3
20260904103529 79 259 7.8 14.8 0.00 0.00 0.00 46 1017.3
20260904103428 79 259 7.8 14.8 0.00 0.00 0.00 47 1017.3
20260904103329 79 255 7.8 14.8 0.00 0.00 0.00 47 1017.4
20260904103325 79 273 7.8 14.8 0.00 0.00 0.00 48 1017.4
20260904103316 79 270 7.8 14.8 0.00 0.00 0.00 48 1017.3
20260904103312 79 249 7.8 14.8 0.00 0.00 0.00 47 1017.4
20260904103029 79 248 7.8 14.8 0.00 0.00 0.00 48 1017.4
20260904102929 79 248 7.8 14.8 0.00 0.00 0.00 47 1017.4
20260904102829 79 211 7.0 14.8 0.00 0.00 0.00 47 1017.4
20260904102729 79 274 7.0 14.8 0.00 0.00 0.00 47 1017.3
20260904102629 79 225 7.0 14.8 0.00 0.00 0.00 47 1017.5
20260904102600 79 210 7.0 14.8 0.00 0.00 0.00 48 1017.4
20260904102528 79 238 7.0 14.8 0.00 0.00 0.00 48 1017.4
20260904102429 79 241 6.1 14.8 0.00 0.00 0.00 48 1017.4
20260904102322 78 206 6.1 14.8 0.00 0.00 0.00 49 1017.5
20260904102223 78 245 5.2 12.2 0.00 0.00 0.00 49 1017.4
20260904102122 78 190 5.2 12.2 0.00 0.00 0.00 48 1017.4
20260904102100 78 241 5.2 12.2 0.00 0.00 0.00 48 1017.4
20260904102021 78 235 6.1 12.2 0.00 0.00 0.00 47 1017.4
20260904101921 78 238 6.1 12.2 0.00 0.00 0.00 48 1017.5
20260904101821 78 228 6.1 12.2 0.00 0.00 0.00 49 1017.5
20260904101817 78 245 6.1 12.2 0.00 0.00 0.00 49 1017.4
20260904101813 78 265 6.1 12.2 0.00 0.00 0.00 49 1017.5
20260904101522 78 258 6.1 12.2 0.00 0.00 0.00 48 1017.5
20260904101422 78 232 6.1 13.0 0.00 0.00 0.00 48 1017.6
20260904101322 78 214 6.1 13.0 0.00 0.00 0.00 48 1017.5
20260904101222 78 207 6.1 13.0 0.00 0.00 0.00 48 1017.6
20260904101118 78 236 6.1 13.0 0.00 0.00 0.00 49 1017.6
20260904101101 78 230 6.1 13.0 0.00 0.00 0.00 49 1017.6
20260904101017 78 208 6.1 13.0 0.00 0.00 0.00 49 1017.8
20260904100917 78 200 6.1 13.0 0.00 0.00 0.00 49 1017.6
20260904100817 78 278 6.1 13.0 0.00 0.00 0.00 48 1017.8
20260904100717 78 197 5.2 13.0 0.00 0.00 0.00 47 1017.8
20260904100618 78 227 5.2 13.0 0.00 0.00 0.00 48 1017.8
20260904100601 78 205 5.2 13.0 0.00 0.00 0.00 48 1017.8
20260904100518 78 257 5.2 13.0 0.00 0.00 0.00 48 1017.8
20260904100418 78 196 5.2 12.2 0.00 0.00 0.00 48 1017.8
20260904100318 78 264 5.2 12.2 0.00 0.00 0.00 50 1017.9
20260904100218 78 207 5.2 10.4 0.00 0.00 0.00 48 1017.8
20260904100118 78 282 5.2 12.2 0.00 0.00 0.00 49 1017.8
20260904100100 78 215 5.2 12.2 0.00 0.00 0.00 49 1017.8
20260904100017 78 237 6.1 12.2 0.00 0.00 0.00 50 1017.9
20260904095918 77 262 6.1 12.2 0.00 0.00 0.00 49 1017.8
20260904095818 77 279 6.1 12.2 0.00 0.00 0.00 51 1017.9
20260904095717 77 273 6.1 12.2 0.00 0.00 0.00 51 1017.9
20260904095617 77 249 6.1 12.2 0.00 0.00 0.00 51 1017.9
20260904095600 77 234 6.1 12.2 0.00 0.00 0.00 51 1017.9
20260904095555 77 199 7.0 11.3 0.00 0.00 0.00 48 1018.1
20260904095544 77 252 6.1 12.2 0.00 0.00 0.00 51 1017.9
20260904095539 77 326 7.0 12.2 0.00 0.00 0.00 50 1018.0
20260904095320 77 217 7.0 12.2 0.00 0.00 0.00 50 1018.0
20260904095316 77 228 7.0 12.2 0.00 0.00 0.00 49 1018.0
20260904095312 77 198 7.0 11.3 0.00 0.00 0.00 48 1018.1
20260904095014 77 217 7.0 12.2 0.00 0.00 0.00 48 1018.0
20260904094912 77 235 7.0 12.2 0.00 0.00 0.00 49 1018.1
20260904094811 77 252 7.0 12.2 0.00 0.00 0.00 50 1018.0
20260904094712 77 213 7.0 12.2 0.00 0.00 0.00 49 1018.0
20260904094612 77 257 7.0 12.2 0.00 0.00 0.00 50 1018.1
20260904094602 77 204 7.0 12.2 0.00 0.00 0.00 50 1018.1
20260904094512 77 204 6.1 12.2 0.00 0.00 0.00 49 1018.1
20260904094412 77 217 6.1 12.2 0.00 0.00 0.00 49 1018.0
20260904094312 77 202 6.1 12.2 0.00 0.00 0.00 50 1018.1
20260904094211 77 238 6.1 12.2 0.00 0.00 0.00 50 1018.1
20260904094111 77 229 5.2 12.2 0.00 0.00 0.00 50 1018.1
20260904094059 77 246 5.2 12.2 0.00 0.00 0.00 50 1018.1
20260904094007 77 214 5.2 10.4 0.00 0.00 0.00 51 1018.2
20260904093907 77 251 5.2 10.4 0.00 0.00 0.00 51 1018.1
20260904093808 76 292 5.2 10.4 0.00 0.00 0.00 52 1018.0
20260904093708 76 267 5.2 8.7 0.00 0.00 0.00 52 1018.2
20260904093608 76 301 5.2 8.7 0.00 0.00 0.00 51 1018.2
20260904093559 76 273 5.2 8.7 0.00 0.00 0.00 51 1018.2
20260904093507 76 250 6.1 10.4 0.00 0.00 0.00 51 1018.2
20260904093407 76 240 6.1 10.4 0.00 0.00 0.00 51 1018.2
20260904093307 76 284 6.1 10.4 0.00 0.00 0.00 52 1018.2
20260904093207 76 202 6.1 10.4 0.00 0.00 0.00 52 1018.3
20260904093107 76 196 6.1 10.4 0.00 0.00 0.00 52 1018.2
20260904093100 76 240 6.1 10.4 0.00 0.00 0.00 52 1018.2
20260904093008 76 244 6.1 10.4 0.00 0.00 0.00 52 1018.3
20260904092908 76 246 6.1 10.4 0.00 0.00 0.00 52 1018.2
20260904092829 76 222 6.1 11.3 0.00 0.00 0.00 51 1018.3
20260904092821 76 275 6.1 11.3 0.00 0.00 0.00 51 1018.2
20260904092817 76 268 6.1 11.3 0.00 0.00 0.00 51 1018.3
20260904092813 76 206 6.1 11.3 0.00 0.00 0.00 51 1018.3
20260904092508 76 192 6.1 11.3 0.00 0.00 0.00 52 1018.4
20260904092408 76 237 6.1 11.3 0.00 0.00 0.00 53 1018.3
20260904092312 76 257 6.1 11.3 0.00 0.00 0.00 53 1018.3
20260904092208 76 270 5.2 11.3 0.00 0.00 0.00 53 1018.3
20260904092104 76 277 5.2 11.3 0.00 0.00 0.00 52 1018.3
20260904092059 76 288 5.2 11.3 0.00 0.00 0.00 52 1018.3
20260904092001 76 215 5.2 11.3 0.00 0.00 0.00 51 1018.4
20260904091901 76 239 5.2 11.3 0.00 0.00 0.00 51 1018.3
20260904091827 75 226 5.2 10.4 0.00 0.00 0.00 51 1018.4
20260904091820 76 200 5.2 9.6 0.00 0.00 0.00 51 1018.4
20260904091815 75 192 5.2 10.4 0.00 0.00 0.00 51 1018.4
20260904091811 75 226 5.2 10.4 0.00 0.00 0.00 51 1018.4
20260904091551 75 226 5.2 10.4 0.00 0.00 0.00 55 1018.5
20260904091543 75 211 5.2 10.4 0.00 0.00 0.00 54 1018.4
20260904091540 75 222 5.2 10.4 0.00 0.00 0.00 53 1018.4
20260904091320 75 258 5.2 10.4 0.00 0.00 0.00 54 1018.5
20260904091316 75 250 5.2 10.4 0.00 0.00 0.00 54 1018.5
20260904091312 75 226 5.2 10.4 0.00 0.00 0.00 55 1018.5
20260904091001 75 273 5.2 12.2 0.00 0.00 0.00 53 1018.5
20260904090902 75 292 5.2 13.0 0.00 0.00 0.00 54 1018.5
20260904090801 75 268 5.2 13.0 0.00 0.00 0.00 54 1018.5
20260904090700 75 221 5.2 13.0 0.00 0.00 0.00 53 1018.6
20260904090603 75 212 5.2 13.0 0.00 0.00 0.00 54 1018.5
20260904090559 75 212 5.2 13.0 0.00 0.00 0.00 54 1018.5
20260904090502 75 257 5.2 13.0 0.00 0.00 0.00 53 1018.6
20260904090401 74 226 6.1 13.0 0.00 0.00 0.00 52 1018.5
20260904090304 74 228 6.1 13.0 0.00 0.00 0.00 53 1018.6
20260904090200 74 215 6.1 13.0 0.00 0.00 0.00 53 1018.6
20260904090103 74 217 5.2 13.0 0.00 0.00 0.00 53 1018.6
20260904090059 74 217 5.2 13.0 0.00 0.00 0.00 53 1018.6
20260904090000 74 237 5.2 13.0 0.00 0.00 0.00 53 1018.6
20260904085901 74 229 5.2 10.4 0.00 0.00 0.00 54 1018.5
20260904085829 74 217 5.2 10.4 0.00 0.00 0.00 54 1018.5
20260904085822 74 212 5.2 10.4 0.00 0.00 0.00 53 1018.6
20260904085815 74 230 5.2 10.4 0.00 0.00 0.00 53 1018.6
20260904085811 74 217 5.2 10.4 0.00 0.00 0.00 54 1018.5
20260904085501 74 258 5.2 10.4 0.00 0.00 0.00 54 1018.5
20260904085401 74 217 5.2 8.7 0.00 0.00 0.00 54 1018.5
20260904085301 74 223 4.3 8.7 0.00 0.00 0.00 54 1018.6
20260904085201 74 196 5.2 10.4 0.00 0.00 0.00 54 1018.6
20260904085104 74 237 5.2 10.4 0.00 0.00 0.00 55 1018.6
20260904085100 74 237 5.2 10.4 0.00 0.00 0.00 55 1018.6
20260904085001 74 235 5.2 10.4 0.00 0.00 0.00 54 1018.6
20260904084901 74 232 5.2 10.4 0.00 0.00 0.00 55 1018.5
20260904084801 74 221 5.2 10.4 0.00 0.00 0.00 54 1018.6
20260904084701 74 266 5.2 10.4 0.00 0.00 0.00 55 1018.6
20260904084601 74 232 5.2 10.4 0.00 0.00 0.00 55 1018.6
20260904084557 74 232 5.2 10.4 0.00 0.00 0.00 55 1018.6
20260904084501 74 236 5.2 10.4 0.00 0.00 0.00 54 1018.6
20260904084401 74 225 6.1 10.4 0.00 0.00 0.00 54 1018.6
20260904084301 74 225 6.1 10.4 0.00 0.00 0.00 54 1018.6
20260904084201 74 227 6.1 9.6 0.00 0.00 0.00 55 1018.6
20260904084102 74 272 6.1 8.7 0.00 0.00 0.00 54 1018.6
20260904084058 74 272 6.1 8.7 0.00 0.00 0.00 54 1018.6
20260904084000 74 251 5.2 8.7 0.00 0.00 0.00 55 1018.6
20260904083900 73 259 6.1 9.6 0.00 0.00 0.00 55 1018.7
20260904083801 73 233 6.1 9.6 0.00 0.00 0.00 55 1018.6
20260904083701 73 246 6.1 10.4 0.00 0.00 0.00 55 1018.6
20260904083603 73 257 6.1 11.3 0.00 0.00 0.00 55 1018.7
20260904083558 73 257 6.1 11.3 0.00 0.00 0.00 55 1018.7
20260904083501 73 273 6.1 11.3 0.00 0.00 0.00 55 1018.7
20260904083402 73 265 6.1 11.3 0.00 0.00 0.00 56 1018.7
20260904083326 73 257 6.1 11.3 0.00 0.00 0.00 55 1018.7
20260904083319 73 269 6.1 11.3 0.00 0.00 0.00 56 1018.7
20260904083312 73 227 6.1 11.3 0.00 0.00 0.00 55 1018.7
20260904083307 73 248 6.1 11.3 0.00 0.00 0.00 55 1018.7
20260904083001 73 271 6.1 11.3 0.00 0.00 0.00 55 1018.7
20260904082901 73 234 6.1 11.3 0.00 0.00 0.00 54 1018.7
20260904082801 73 275 6.1 11.3 0.00 0.00 0.00 55 1018.8
20260904082701 73 260 6.1 11.3 0.00 0.00 0.00 55 1018.7
20260904082601 73 310 5.2 9.6 0.00 0.00 0.00 55 1018.8
20260904082556 73 259 5.2 9.6 0.00 0.00 0.00 55 1018.8
20260904082501 73 268 5.2 9.6 0.00 0.00 0.00 56 1018.8
20260904082400 73 252 5.2 9.6 0.00 0.00 0.00 56 1018.8
20260904082300 73 274 5.2 9.6 0.00 0.00 0.00 57 1018.8
20260904082200 73 245 5.2 10.4 0.00 0.00 0.00 57 1018.8
20260904082101 73 264 5.2 10.4 0.00 0.00 0.00 56 1018.8
20260904082053 73 263 5.2 10.4 0.00 0.00 0.00 56 1018.8
20260904082001 73 253 5.2 10.4 0.00 0.00 0.00 56 1018.8
20260904081901 73 266 5.2 10.4 0.00 0.00 0.00 56 1018.8
20260904081801 73 259 5.2 10.4 0.00 0.00 0.00 57 1018.8
20260904081701 72 211 6.1 10.4 0.00 0.00 0.00 56 1018.8
20260904081601 72 268 7.0 10.4 0.00 0.00 0.00 56 1018.8
20260904081552 72 266 7.0 10.4 0.00 0.00 0.00 56 1018.8
20260904081501 72 273 7.0 10.4 0.00 0.00 0.00 55 1018.8
20260904081401 72 292 7.0 10.4 0.00 0.00 0.00 56 1018.8
20260904081301 72 253 7.0 10.4 0.00 0.00 0.00 56 1018.8
20260904081201 72 263 7.0 11.3 0.00 0.00 0.00 56 1018.9
20260904081101 72 284 7.0 12.2 0.00 0.00 0.00 56 1018.8
20260904081050 72 269 7.0 12.2 0.00 0.00 0.00 56 1018.8
20260904081000 72 229 7.0 12.2 0.00 0.00 0.00 55 1018.8
20260904080901 72 259 6.1 12.2 0.00 0.00 0.00 55 1018.8
20260904080801 72 298 6.1 12.2 0.00 0.00 0.00 56 1018.8
20260904080700 72 232 6.1 12.2 0.00 0.00 0.00 56 1018.8
20260904080601 72 265 5.2 12.2 0.00 0.00 0.00 57 1018.9
20260904080547 72 244 5.2 12.2 0.00 0.00 0.00 57 1018.9
20260904080501 72 265 5.2 12.2 0.00 0.00 0.00 56 1018.8
20260904080401 72 279 5.2 12.2 0.00 0.00 0.00 57 1018.8
20260904080301 72 247 5.2 12.2 0.00 0.00 0.00 57 1018.8
20260904080200 72 277 4.3 12.2 0.00 0.00 0.00 57 1018.9
20260904080101 72 249 4.3 12.2 0.00 0.00 0.00 58 1018.8
20260904080046 72 254 4.3 12.2 0.00 0.00 0.00 57 1018.8
20260904080001 72 269 5.2 8.7 0.00 0.00 0.00 56 1018.8
20260904075901 72 252 5.2 11.3 0.00 0.00 0.00 57 1018.8
20260904075801 72 237 5.2 11.3 0.00 0.00 0.00 57 1018.8
20260904075658 71 221 5.2 11.3 0.00 0.00 0.00 57 1018.9
20260904075556 71 233 5.2 11.3 0.00 0.00 0.00 58 1018.9
20260904075545 71 241 5.2 11.3 0.00 0.00 0.00 57 1018.9
20260904075455 71 217 5.2 11.3 0.00 0.00 0.00 57 1018.8
20260904075355 71 234 5.2 11.3 0.00 0.00 0.00 57 1018.9
20260904075255 71 221 5.2 11.3 0.00 0.00 0.00 57 1018.9
20260904075151 71 265 5.2 11.3 0.00 0.00 0.00 57 1018.9
20260904075051 71 216 5.2 11.3 0.00 0.00 0.00 58 1018.9
20260904075046 71 208 5.2 11.3 0.00 0.00 0.00 58 1018.9
20260904074952 71 284 5.2 11.3 0.00 0.00 0.00 58 1018.9
20260904074852 71 221 6.1 9.6 0.00 0.00 0.00 58 1018.9
20260904074751 71 244 6.1 9.6 0.00 0.00 0.00 58 1018.9
20260904074649 71 225 6.1 9.6 0.00 0.00 0.00 58 1018.9
20260904074549 71 223 6.1 9.6 0.00 0.00 0.00 58 1018.9
20260904074545 71 215 6.1 9.6 0.00 0.00 0.00 58 1018.9
20260904074449 71 223 6.1 9.6 0.00 0.00 0.00 58 1018.9
20260904074347 71 211 6.1 9.6 0.00 0.00 0.00 58 1018.9
20260904074245 71 224 6.1 9.6 0.00 0.00 0.00 59 1019.0
20260904074145 71 240 6.1 9.6 0.00 0.00 0.00 59 1019.0
20260904074048 70 225 6.1 9.6 0.00 0.00 0.00 59 1019.0
20260904074044 70 253 6.1 9.6 0.00 0.00 0.00 59 1019.0
20260904073946 70 236 5.2 9.6 0.00 0.00 0.00 59 1019.0
20260904073845 70 238 5.2 9.6 0.00 0.00 0.00 59 1019.0
20260904073745 70 235 5.2 9.6 0.00 0.00 0.00 60 1019.0
20260904073644 70 225 5.2 9.6 0.00 0.00 0.00 60 1019.0
20260904073543 70 249 5.2 9.6 0.00 0.00 0.00 60 1019.0
20260904073443 70 276 5.2 9.6 0.00 0.00 0.00 60 1019.0
20260904073343 70 244 5.2 9.6 0.00 0.00 0.00 60 1019.0
20260904073243 70 250 4.3 8.7 0.00 0.00 0.00 61 1019.0
20260904073143 70 231 4.3 8.7 0.00 0.00 0.00 61 1019.0
20260904073043 70 220 4.3 8.7 0.00 0.00 0.00 60 1019.0
20260904072939 70 227 4.3 8.7 0.00 0.00 0.00 61 1019.0
20260904072838 70 219 5.2 8.7 0.00 0.00 0.00 60 1019.0
20260904072738 69 221 5.2 9.6 0.00 0.00 0.00 61 1019.1
20260904072637 69 215 5.2 9.6 0.00 0.00 0.00 62 1019.2
20260904072536 69 217 5.2 9.6 0.00 0.00 0.00 62 1019.1
20260904072433 69 222 4.3 9.6 0.00 0.00 0.00 62 1019.1
20260904072331 69 206 4.3 9.6 0.00 0.00 0.00 61 1019.1
20260904072231 69 194 4.3 9.6 0.00 0.00 0.00 61 1019.1
20260904072129 69 210 4.3 9.6 0.00 0.00 0.00 61 1019.1
20260904072029 69 221 4.3 9.6 0.00 0.00 0.00 62 1019.1
20260904072022 69 238 4.3 7.8 0.00 0.00 0.00 62 1019.0
20260904072015 69 236 4.3 9.6 0.00 0.00 0.00 62 1019.1
20260904072011 69 246 4.3 9.6 0.00 0.00 0.00 62 1019.1
20260904071753 69 228 4.3 9.6 0.00 0.00 0.00 63 1019.0
20260904071745 69 227 4.3 7.8 0.00 0.00 0.00 62 1019.1
20260904071741 69 238 4.3 7.8 0.00 0.00 0.00 62 1019.0
20260904071429 68 223 4.3 7.8 0.00 0.00 0.00 62 1019.1
20260904071329 68 213 4.3 7.8 0.00 0.00 0.00 64 1019.1
20260904071229 68 214 4.3 7.8 0.00 0.00 0.00 63 1019.0
20260904071129 68 232 4.3 7.8 0.00 0.00 0.00 64 1019.1
20260904071029 68 268 4.3 7.8 0.00 0.00 0.00 63 1019.1
20260904070929 68 236 4.3 7.0 0.00 0.00 0.00 63 1019.1
20260904070829 68 232 3.5 7.0 0.00 0.00 0.00 63 1019.2
20260904070729 68 235 3.5 7.0 0.00 0.00 0.00 63 1019.1
20260904070629 68 200 3.5 7.0 0.00 0.00 0.00 62 1019.1
20260904070529 68 220 3.5 7.0 0.00 0.00 0.00 63 1019.1
20260904070428 67 213 3.5 7.0 0.00 0.00 0.00 64 1019.1
20260904070328 67 221 3.5 7.0 0.00 0.00 0.00 64 1019.2
20260904070229 67 213 3.5 6.1 0.00 0.00 0.00 65 1019.2
20260904070129 67 252 3.5 6.1 0.00 0.00 0.00 65 1019.2
20260904070028 67 284 3.5 5.2 0.00 0.00 0.00 65 1019.1
20260904065929 67 263 2.6 5.2 0.00 0.00 0.00 66 1019.1
20260904065829 67 238 2.6 5.2 0.00 0.00 0.00 65 1019.2
20260904065729 67 215 2.6 6.1 0.00 0.00 0.00 65 1019.2
20260904065628 67 226 2.6 6.1 0.00 0.00 0.00 66 1019.2
20260904065529 67 221 2.6 6.1 0.00 0.00 0.00 66 1019.2
20260904065429 67 268 2.6 6.1 0.00 0.00 0.00 66 1019.3
20260904065329 66 227 2.6 7.0 0.00 0.00 0.00 66 1019.2
20260904065229 66 223 2.6 7.0 0.00 0.00 0.00 65 1019.2
20260904065129 66 232 3.5 7.0 0.00 0.00 0.00 66 1019.2
20260904065030 66 204 2.6 7.0 0.00 0.00 0.00 66 1019.2
20260904064929 66 239 2.6 7.0 0.00 0.00 0.00 67 1019.2
20260904064829 66 227 2.6 7.0 0.00 0.00 0.00 66 1019.2
20260904064729 65 271 2.6 7.0 0.00 0.00 0.00 67 1019.2
20260904064633 65 232 2.6 7.0 0.00 0.00 0.00 68 1019.2
20260904064529 65 234 3.5 8.7 0.00 0.00 0.00 68 1019.2
20260904064429 65 254 2.6 8.7 0.00 0.00 0.00 68 1019.2
20260904064330 65 201 2.6 8.7 0.00 0.00 0.00 69 1019.2
20260904064229 65 201 2.6 8.7 0.00 0.00 0.00 69 1019.2
20260904064129 65 235 2.6 8.7 0.00 0.00 0.00 69 1019.1
20260904064030 65 254 2.6 8.7 0.00 0.00 0.00 69 1019.1
20260904063929 64 261 2.6 8.7 0.00 0.00 0.00 69 1019.1
20260904063829 64 233 2.6 8.7 0.00 0.00 0.00 69 1019.2
20260904063729 64 255 2.6 8.7 0.00 0.00 0.00 70 1019.1
20260904063629 64 243 2.6 8.7 0.00 0.00 0.00 70 1019.2
20260904063529 64 246 1.7 4.3 0.00 0.00 0.00 70 1019.2
20260904063429 64 238 1.7 4.3 0.00 0.00 0.00 70 1019.1
20260904063329 64 237 1.7 4.3 0.00 0.00 0.00 71 1019.1
20260904063229 64 211 1.7 4.3 0.00 0.00 0.00 70 1019.1
20260904063128 63 200 1.7 4.3 0.00 0.00 0.00 70 1019.1
20260904063029 63 199 1.7 4.3 0.00 0.00 0.00 71 1019.1
20260904062928 63 213 1.7 4.3 0.00 0.00 0.00 72 1019.1
20260904062828 63 213 1.7 4.3 0.00 0.00 0.00 72 1019.1
20260904062728 63 221 1.7 4.3 0.00 0.00 0.00 72 1019.1
20260904062628 63 206 1.7 4.3 0.00 0.00 0.00 71 1019.1
20260904062527 63 205 0.9 4.3 0.00 0.00 0.00 72 1019.1
20260904062425 63 205 0.9 4.3 0.00 0.00 0.00 73 1019.1
20260904062321 62 205 0.9 4.3 0.00 0.00 0.00 74 1019.1
20260904062219 62 231 0.9 2.6 0.00 0.00 0.00 74 1019.1
20260904062119 62 231 0.9 1.7 0.00 0.00 0.00 73 1019.1
20260904062019 62 169 0.9 3.5 0.00 0.00 0.00 73 1019.1
20260904061919 62 168 0.9 3.5 0.00 0.00 0.00 73 1019.0
20260904061813 62 168 0.9 3.5 0.00 0.00 0.00 74 1019.1
20260904061713 62 168 0.9 3.5 0.00 0.00 0.00 74 1019.0
20260904061613 62 168 0.9 3.5 0.00 0.00 0.00 74 1019.1
20260904061513 62 168 0.9 3.5 0.00 0.00 0.00 74 1019.1
20260904061413 62 168 0.9 3.5 0.00 0.00 0.00 74 1019.1
20260904061313 62 168 0.9 3.5 0.00 0.00 0.00 74 1019.1
20260904061211 62 168 0.9 3.5 0.00 0.00 0.00 75 1019.1
20260904061111 62 168 0.9 3.5 0.00 0.00 0.00 75 1019.0
20260904061030 62 168 0.9 3.5 0.00 0.00 0.00 76 1019.0
20260904061009 62 168 0.9 3.5 0.00 0.00 0.00 76 1019.1
20260904060909 62 168 0.9 3.5 0.00 0.00 0.00 76 1019.1
20260904060809 62 168 0.9 3.5 0.00 0.00 0.00 76 1019.1
20260904060709 62 168 0.9 3.5 0.00 0.00 0.00 76 1019.1
20260904060609 62 168 0.9 3.5 0.00 0.00 0.00 76 1019.1
20260904060529 62 168 0.9 3.5 0.00 0.00 0.00 76 1019.1
20260904060518 62 195 0.9 2.6 0.00 0.00 0.00 75 1019.0
20260904060513 62 168 0.9 3.5 0.00 0.00 0.00 76 1019.0
20260904060509 62 168 0.9 3.5 0.00 0.00 0.00 76 1019.0
20260904060505 62 168 0.9 3.5 0.00 0.00 0.00 76 1019.0
20260904060248 62 191 0.9 2.6 0.00 0.00 0.00 76 1019.0
20260904060243 62 195 0.9 2.6 0.00 0.00 0.00 76 1019.0
20260904060005 62 195 0.9 2.6 0.00 0.00 0.00 75 1019.0
20260904055905 62 195 0.9 2.6 0.00 0.00 0.00 75 1019.1
20260904055805 62 195 0.9 2.6 0.00 0.00 0.00 75 1019.0
20260904055705 62 195 0.0 2.6 0.00 0.00 0.00 76 1019.0
20260904055605 62 195 0.9 2.6 0.00 0.00 0.00 75 1019.0
20260904055532 62 195 0.9 2.6 0.00 0.00 0.00 75 1019.0
20260904055503 62 195 0.0 2.6 0.00 0.00 0.00 75 1019.0
20260904055403 62 205 0.0 1.7 0.00 0.00 0.00 75 1019.1
20260904055306 62 205 0.0 1.7 0.00 0.00 0.00 75 1019.1
20260904055201 62 205 0.0 1.7 0.00 0.00 0.00 75 1019.1
20260904055101 62 205 0.0 1.7 0.00 0.00 0.00 75 1019.1
20260904055001 62 205 0.0 0.9 0.00 0.00 0.00 75 1019.1
20260904054901 63 205 0.0 0.9 0.00 0.00 0.00 75 1019.1
20260904054801 63 205 0.0 0.9 0.00 0.00 0.00 74 1019.1
20260904054701 63 205 0.0 0.9 0.00 0.00 0.00 74 1019.1
20260904054601 63 205 0.0 0.9 0.00 0.00 0.00 74 1019.1
20260904054501 63 205 0.0 1.7 0.00 0.00 0.00 74 1019.1
20260904054401 63 205 0.0 1.7 0.00 0.00 0.00 74 1019.1
20260904054301 63 205 0.0 1.7 0.00 0.00 0.00 74 1019.2
20260904054201 63 205 0.0 1.7 0.00 0.00 0.00 73 1019.2
20260904054101 63 205 0.0 1.7 0.00 0.00 0.00 73 1019.2
20260904054001 63 205 0.0 1.7 0.00 0.00 0.00 73 1019.2
20260904053901 63 205 0.0 1.7 0.00 0.00 0.00 73 1019.1
20260904053801 63 205 0.0 1.7 0.00 0.00 0.00 73 1019.1
20260904053700 63 205 0.0 1.7 0.00 0.00 0.00 73 1019.2
20260904053600 63 205 0.0 1.7 0.00 0.00 0.00 73 1019.1
20260904053529 63 205 0.0 0.9 0.00 0.00 0.00 73 1019.1
20260904053500 63 205 0.0 0.9 0.00 0.00 0.00 73 1019.2
20260904053400 63 205 0.0 5.2 0.00 0.00 0.00 72 1019.2
20260904053300 63 205 0.0 5.2 0.00 0.00 0.00 72 1019.2
20260904053201 63 205 0.0 5.2 0.00 0.00 0.00 72 1019.2
20260904053101 64 205 0.0 5.2 0.00 0.00 0.00 72 1019.2
20260904053006 64 205 0.0 5.2 0.00 0.00 0.00 72 1019.2
20260904052900 64 205 0.0 5.2 0.00 0.00 0.00 71 1019.2
20260904052800 64 205 0.0 5.2 0.00 0.00 0.00 71 1019.3
20260904052700 64 205 0.9 5.2 0.00 0.00 0.00 71 1019.2
20260904052600 64 205 0.9 5.2 0.00 0.00 0.00 71 1019.2
20260904052528 64 205 0.9 5.2 0.00 0.00 0.00 71 1019.2
20260904052501 64 205 0.9 5.2 0.00 0.00 0.00 71 1019.3
20260904052400 64 205 0.9 5.2 0.00 0.00 0.00 71 1019.2
20260904052300 64 205 1.7 5.2 0.00 0.00 0.00 70 1019.3
20260904052253 64 205 1.7 5.2 0.00 0.00 0.00 70 1019.3
20260904052246 64 205 1.7 5.2 0.00 0.00 0.00 70 1019.3
20260904052242 64 205 1.7 5.2 0.00 0.00 0.00 70 1019.3
20260904052001 64 205 1.7 5.2 0.00 0.00 0.00 69 1019.3
20260904051901 64 205 2.6 5.2 0.00 0.00 0.00 69 1019.3
20260904051801 64 205 2.6 5.2 0.00 0.00 0.00 69 1019.3
20260904051701 64 205 2.6 5.2 0.00 0.00 0.00 69 1019.3
20260904051601 64 205 2.6 5.2 0.00 0.00 0.00 68 1019.3
20260904051535 64 207 2.6 5.2 0.00 0.00 0.00 67 1019.3
20260904051529 64 205 2.6 5.2 0.00 0.00 0.00 68 1019.3
20260904051525 64 205 2.6 5.2 0.00 0.00 0.00 67 1019.3
20260904051517 64 226 2.6 5.2 0.00 0.00 0.00 67 1019.2
20260904051301 64 228 2.6 5.2 0.00 0.00 0.00 67 1019.3
20260904051243 64 207 2.6 5.2 0.00 0.00 0.00 67 1019.3
20260904051239 64 207 2.6 5.2 0.00 0.00 0.00 67 1019.3
20260904051000 64 217 2.6 5.2 0.00 0.00 0.00 67 1019.3
20260904050900 64 221 2.6 5.2 0.00 0.00 0.00 67 1019.3
20260904050801 64 221 2.6 5.2 0.00 0.00 0.00 67 1019.3
20260904050701 64 225 2.6 5.2 0.00 0.00 0.00 67 1019.3
20260904050601 65 212 2.6 5.2 0.00 0.00 0.00 67 1019.3
20260904050528 64 213 2.6 5.2 0.00 0.00 0.00 67 1019.3
20260904050501 65 224 2.6 4.3 0.00 0.00 0.00 67 1019.3
20260904050401 65 224 2.6 4.3 0.00 0.00 0.00 67 1019.2
20260904050301 65 225 2.6 4.3 0.00 0.00 0.00 67 1019.3
20260904050201 65 210 2.6 4.3 0.00 0.00 0.00 67 1019.3
20260904050101 65 211 2.6 4.3 0.00 0.00 0.00 67 1019.3
20260904050029 65 208 2.6 4.3 0.00 0.00 0.00 66 1019.3
20260904050025 65 221 1.7 4.3 0.00 0.00 0.00 66 1019.2
20260904050020 65 210 1.7 4.3 0.00 0.00 0.00 66 1019.3
20260904050008 65 210 1.7 4.3 0.00 0.00 0.00 66 1019.3
20260904050004 65 210 1.7 4.3 0.00 0.00 0.00 66 1019.3
20260904045744 65 211 1.7 4.3 0.00 0.00 0.00 66 1019.3
20260904045741 65 221 1.7 4.3 0.00 0.00 0.00 66 1019.2
20260904045501 65 231 1.7 4.3 0.00 0.00 0.00 66 1019.3
20260904045400 65 232 1.7 4.3 0.00 0.00 0.00 67 1019.2
20260904045301 65 234 2.6 6.1 0.00 0.00 0.00 66 1019.3
20260904045201 65 234 2.6 6.1 0.00 0.00 0.00 66 1019.2
20260904045101 65 234 2.6 6.1 0.00 0.00 0.00 66 1019.2
20260904045029 65 228 2.6 6.1 0.00 0.00 0.00 66 1019.2
20260904045001 65 228 2.6 6.1 0.00 0.00 0.00 66 1019.1
20260904044901 65 228 2.6 6.1 0.00 0.00 0.00 66 1019.2
20260904044801 65 228 2.6 6.1 0.00 0.00 0.00 66 1019.2
20260904044750 65 216 2.6 6.1 0.00 0.00 0.00 66 1019.2
20260904044744 65 215 2.6 6.1 0.00 0.00 0.00 66 1019.1
20260904044741 65 216 2.6 6.1 0.00 0.00 0.00 66 1019.2
20260904044501 65 217 2.6 6.1 0.00 0.00 0.00 66 1019.2
20260904044401 65 211 2.6 6.1 0.00 0.00 0.00 66 1019.2
20260904044301 65 226 2.6 6.1 0.00 0.00 0.00 66 1019.2
20260904044201 65 214 2.6 6.1 0.00 0.00 0.00 66 1019.2
20260904044101 65 213 2.6 6.1 0.00 0.00 0.00 66 1019.2
20260904044031 65 211 2.6 6.1 0.00 0.00 0.00 66 1019.2
20260904044001 65 211 1.7 6.1 0.00 0.00 0.00 66 1019.3
20260904043905 65 219 2.6 6.1 0.00 0.00 0.00 66 1019.3
20260904043801 65 219 1.7 6.1 0.00 0.00 0.00 66 1019.3
20260904043700 65 218 2.6 6.1 0.00 0.00 0.00 66 1019.3
20260904043600 65 216 2.6 6.1 0.00 0.00 0.00 66 1019.3
20260904043500 65 203 2.6 6.1 0.00 0.00 0.00 66 1019.3
20260904043401 65 238 2.6 6.1 0.00 0.00 0.00 66 1019.4
20260904043300 65 238 2.6 6.1 0.00 0.00 0.00 66 1019.4
20260904043200 65 236 2.6 6.1 0.00 0.00 0.00 66 1019.4
20260904043100 65 237 2.6 6.1 0.00 0.00 0.00 66 1019.4
20260904043029 65 227 2.6 6.1 0.00 0.00 0.00 66 1019.4
20260904043001 65 228 2.6 6.1 0.00 0.00 0.00 66 1019.4
20260904042900 65 227 2.6 6.1 0.00 0.00 0.00 66 1019.4
20260904042801 65 226 2.6 6.1 0.00 0.00 0.00 66 1019.4
20260904042700 65 227 1.7 6.1 0.00 0.00 0.00 65 1019.4
20260904042600 65 217 2.6 4.3 0.00 0.00 0.00 66 1019.4
20260904042525 65 224 1.7 4.3 0.00 0.00 0.00 65 1019.4
20260904042500 65 225 1.7 4.3 0.00 0.00 0.00 65 1019.4
20260904042401 65 204 1.7 4.3 0.00 0.00 0.00 66 1019.3
20260904042301 65 202 1.7 4.3 0.00 0.00 0.00 66 1019.4
20260904042200 65 202 1.7 4.3 0.00 0.00 0.00 65 1019.3
20260904042057 65 196 1.7 4.3 0.00 0.00 0.00 65 1019.3
20260904042022 65 196 1.7 4.3 0.00 0.00 0.00 65 1019.3
20260904041957 66 196 1.7 4.3 0.00 0.00 0.00 65 1019.4
20260904041857 66 233 1.7 4.3 0.00 0.00 0.00 65 1019.4
20260904041757 66 227 1.7 6.1 0.00 0.00 0.00 65 1019.4
20260904041655 66 237 1.7 6.1 0.00 0.00 0.00 65 1019.3
20260904041551 66 234 1.7 6.1 0.00 0.00 0.00 65 1019.4
20260904041523 66 230 1.7 6.1 0.00 0.00 0.00 65 1019.4
20260904041449 66 230 1.7 6.1 0.00 0.00 0.00 65 1019.4
20260904041353 66 230 2.6 6.1 0.00 0.00 0.00 65 1019.4
20260904041249 66 230 2.6 6.1 0.00 0.00 0.00 65 1019.4
20260904041149 66 229 2.6 6.1 0.00 0.00 0.00 65 1019.4
20260904041023 66 231 2.6 6.1 0.00 0.00 0.00 65 1019.4
20260904040947 66 257 2.6 6.1 0.00 0.00 0.00 65 1019.4
20260904040844 66 231 2.6 6.1 0.00 0.00 0.00 65 1019.5
20260904040744 66 232 2.6 5.2 0.00 0.00 0.00 65 1019.5
20260904040642 66 207 2.6 5.2 0.00 0.00 0.00 65 1019.5
20260904040523 66 207 2.6 6.1 0.00 0.00 0.00 65 1019.5
20260904040441 66 207 2.6 6.1 0.00 0.00 0.00 65 1019.5
20260904040341 66 200 2.6 6.1 0.00 0.00 0.00 65 1019.5
20260904040243 66 244 2.6 6.1 0.00 0.00 0.00 65 1019.7
20260904040239 66 237 2.6 6.1 0.00 0.00 0.00 65 1019.7
20260904040235 66 232 2.6 6.1 0.00 0.00 0.00 65 1019.7
20260904035931 66 269 2.6 6.1 0.00 0.00 0.00 65 1019.7
20260904035831 66 237 2.6 6.1 0.00 0.00 0.00 64 1019.7
20260904035731 66 236 2.6 6.1 0.00 0.00 0.00 64 1019.7
20260904035631 66 229 2.6 6.1 0.00 0.00 0.00 64 1019.7
20260904035522 66 223 2.6 5.2 0.00 0.00 0.00 64 1019.7
20260904035517 66 213 2.6 6.1 0.00 0.00 0.00 65 1019.7
20260904035508 66 223 2.6 5.2 0.00 0.00 0.00 65 1019.7
20260904035500 66 233 2.6 6.1 0.00 0.00 0.00 65 1019.7
20260904035243 66 234 2.6 6.1 0.00 0.00 0.00 64 1019.7
20260904035239 66 215 2.6 6.1 0.00 0.00 0.00 64 1019.7
20260904035235 66 213 2.6 6.1 0.00 0.00 0.00 65 1019.7
20260904034929 66 206 2.6 6.1 0.00 0.00 0.00 64 1019.7
20260904034829 66 206 2.6 6.1 0.00 0.00 0.00 64 1019.7
20260904034729 66 205 2.6 6.1 0.00 0.00 0.00 65 1019.7
20260904034629 66 217 2.6 6.1 0.00 0.00 0.00 65 1019.7
20260904034529 66 224 2.6 6.1 0.00 0.00 0.00 64 1019.7
20260904034523 66 225 2.6 6.1 0.00 0.00 0.00 64 1019.7
20260904034512 66 220 2.6 6.1 0.00 0.00 0.00 64 1019.8
20260904034508 66 213 2.6 6.1 0.00 0.00 0.00 64 1019.7
20260904034500 66 215 2.6 5.2 0.00 0.00 0.00 64 1019.7
20260904034243 66 217 2.6 5.2 0.00 0.00 0.00 64 1019.7
20260904034239 66 231 2.6 5.2 0.00 0.00 0.00 64 1019.8
20260904034235 66 221 2.6 5.2 0.00 0.00 0.00 64 1019.8
20260904033929 66 220 2.6 6.1 0.00 0.00 0.00 65 1019.8
20260904033829 66 225 2.6 6.1 0.00 0.00 0.00 65 1019.8
20260904033729 66 223 2.6 6.1 0.00 0.00 0.00 64 1019.8
20260904033629 66 223 2.6 6.1 0.00 0.00 0.00 64 1019.8
20260904033529 66 236 2.6 6.1 0.00 0.00 0.00 64 1019.8
20260904033522 66 236 2.6 6.1 0.00 0.00 0.00 64 1019.9
20260904033428 66 209 2.6 6.1 0.00 0.00 0.00 65 1019.9
20260904033329 66 215 2.6 6.1 0.00 0.00 0.00 64 1019.9
20260904033229 66 217 2.6 6.1 0.00 0.00 0.00 64 1019.8
20260904033129 66 232 2.6 6.1 0.00 0.00 0.00 65 1019.9
20260904033029 66 211 2.6 6.1 0.00 0.00 0.00 64 1019.8
20260904033022 66 211 2.6 7.0 0.00 0.00 0.00 64 1019.8
20260904032928 66 253 2.6 7.0 0.00 0.00 0.00 64 1019.8
20260904032828 66 216 2.6 7.0 0.00 0.00 0.00 64 1019.9
20260904032728 66 257 2.6 7.0 0.00 0.00 0.00 64 1019.9
20260904032629 66 241 2.6 7.0 0.00 0.00 0.00 64 1019.9
20260904032523 66 214 2.6 7.0 0.00 0.00 0.00 65 1019.9
20260904032429 66 229 2.6 7.0 0.00 0.00 0.00 65 1019.8
20260904032333 66 221 2.6 7.0 0.00 0.00 0.00 64 1019.9
20260904032229 66 232 2.6 7.0 0.00 0.00 0.00 65 1019.8
20260904032130 66 233 2.6 7.0 0.00 0.00 0.00 64 1019.8
20260904032029 66 229 2.6 7.0 0.00 0.00 0.00 64 1019.8
20260904032022 66 242 2.6 7.0 0.00 0.00 0.00 64 1019.8
20260904031928 66 219 2.6 5.2 0.00 0.00 0.00 65 1019.8
20260904031830 66 209 2.6 5.2 0.00 0.00 0.00 64 1019.8
20260904031747 66 223 3.5 7.0 0.00 0.00 0.00 64 1019.7
20260904031740 66 205 2.6 5.2 0.00 0.00 0.00 65 1019.8
20260904031736 66 267 2.6 5.2 0.00 0.00 0.00 64 1019.8
20260904031732 66 219 2.6 6.1 0.00 0.00 0.00 64 1019.8
20260904031727 66 218 2.6 6.1 0.00 0.00 0.00 64 1019.8
20260904031511 66 223 2.6 7.0 0.00 0.00 0.00 64 1019.8
20260904031507 66 229 2.6 7.0 0.00 0.00 0.00 65 1019.8
20260904031243 66 227 2.6 7.0 0.00 0.00 0.00 64 1019.8
20260904031239 66 217 2.6 7.0 0.00 0.00 0.00 64 1019.8
20260904031235 66 223 3.5 7.0 0.00 0.00 0.00 64 1019.7
20260904030929 66 222 3.5 7.0 0.00 0.00 0.00 64 1019.7
20260904030829 66 217 3.5 7.0 0.00 0.00 0.00 64 1019.7
20260904030729 66 227 3.5 7.0 0.00 0.00 0.00 64 1019.7
20260904030629 66 254 3.5 7.0 0.00 0.00 0.00 65 1019.7
20260904030529 66 219 3.5 7.0 0.00 0.00 0.00 64 1019.7
20260904030523 66 215 3.5 7.0 0.00 0.00 0.00 64 1019.8
20260904030429 66 222 3.5 7.0 0.00 0.00 0.00 64 1019.8
20260904030329 66 209 3.5 7.0 0.00 0.00 0.00 64 1019.8
20260904030229 66 209 3.5 7.0 0.00 0.00 0.00 65 1019.8
20260904030129 66 197 3.5 7.0 0.00 0.00 0.00 65 1019.8
20260904030030 66 229 3.5 7.0 0.00 0.00 0.00 64 1019.8
20260904030018 66 229 3.5 7.0 0.00 0.00 0.00 64 1019.7
20260904025928 66 209 3.5 7.0 0.00 0.00 0.00 64 1019.7
20260904025828 66 210 3.5 7.0 0.00 0.00 0.00 64 1019.8
20260904025729 66 250 3.5 7.0 0.00 0.00 0.00 64 1019.8
20260904025628 66 239 3.5 7.0 0.00 0.00 0.00 65 1019.8
20260904025529 66 238 3.5 7.0 0.00 0.00 0.00 64 1019.8
20260904025511 66 239 3.5 7.0 0.00 0.00 0.00 64 1019.8
20260904025429 66 232 3.5 7.0 0.00 0.00 0.00 65 1019.8
20260904025329 66 240 3.5 7.0 0.00 0.00 0.00 65 1019.8
20260904025228 66 232 3.5 7.0 0.00 0.00 0.00 64 1019.8
20260904025129 66 217 3.5 7.0 0.00 0.00 0.00 65 1019.9
20260904025028 66 218 3.5 7.0 0.00 0.00 0.00 65 1019.9
20260904025011 66 225 3.5 7.0 0.00 0.00 0.00 65 1019.9
20260904024928 66 205 3.5 7.0 0.00 0.00 0.00 64 1019.9
20260904024829 66 213 3.5 7.0 0.00 0.00 0.00 64 1019.9
20260904024729 66 209 3.5 7.0 0.00 0.00 0.00 64 1019.9
20260904024725 66 242 3.5 7.0 0.00 0.00 0.00 65 1019.9
20260904024721 66 227 3.5 7.0 0.00 0.00 0.00 65 1019.9
20260904024428 66 229 3.5 7.0 0.00 0.00 0.00 64 1019.9
20260904024329 66 213 3.5 7.0 0.00 0.00 0.00 64 1019.9
20260904024229 66 207 3.5 7.0 0.00 0.00 0.00 64 1019.9
20260904024129 66 227 3.5 7.0 0.00 0.00 0.00 65 1019.9
20260904024029 66 204 3.5 7.0 0.00 0.00 0.00 64 1019.9
20260904024010 66 203 3.5 7.0 0.00 0.00 0.00 64 1019.9
20260904023929 66 240 3.5 7.0 0.00 0.00 0.00 64 1019.9
20260904023829 66 227 3.5 7.0 0.00 0.00 0.00 64 1019.9
20260904023729 66 218 3.5 7.0 0.00 0.00 0.00 64 1019.9
20260904023629 66 219 3.5 7.0 0.00 0.00 0.00 64 1020.0
20260904023529 66 217 3.5 6.1 0.00 0.00 0.00 64 1020.0
20260904023510 66 219 3.5 6.1 0.00 0.00 0.00 64 1020.0
20260904023428 66 249 3.5 6.1 0.00 0.00 0.00 64 1020.0
20260904023328 66 234 3.5 6.1 0.00 0.00 0.00 64 1020.0
20260904023237 66 205 3.5 7.0 0.00 0.00 0.00 64 1020.0
20260904023232 66 220 3.5 6.1 0.00 0.00 0.00 64 1020.0
20260904023228 66 209 3.5 7.0 0.00 0.00 0.00 64 1020.0
20260904023224 66 209 3.5 7.0 0.00 0.00 0.00 64 1020.0
20260904022928 66 235 3.5 7.0 0.00 0.00 0.00 64 1020.0
20260904022828 66 247 3.5 7.0 0.00 0.00 0.00 64 1020.0
20260904022728 66 225 3.5 7.0 0.00 0.00 0.00 64 1020.0
20260904022628 66 238 3.5 7.0 0.00 0.00 0.00 64 1020.0
20260904022529 66 227 3.5 7.0 0.00 0.00 0.00 64 1020.0
20260904022508 66 230 3.5 7.0 0.00 0.00 0.00 64 1020.0
20260904022429 66 231 3.5 7.0 0.00 0.00 0.00 64 1020.0
20260904022329 66 224 3.5 7.0 0.00 0.00 0.00 64 1020.0
20260904022228 66 248 3.5 7.0 0.00 0.00 0.00 63 1020.0
20260904022129 66 243 3.5 7.0 0.00 0.00 0.00 63 1020.0
20260904022029 66 224 3.5 7.0 0.00 0.00 0.00 63 1020.0
20260904022008 66 219 3.5 7.0 0.00 0.00 0.00 63 1020.0
20260904021929 66 242 3.5 7.0 0.00 0.00 0.00 63 1020.0
20260904021828 66 207 3.5 7.0 0.00 0.00 0.00 63 1019.9
20260904021734 66 212 3.5 7.0 0.00 0.00 0.00 63 1020.0
20260904021728 66 255 3.5 7.0 0.00 0.00 0.00 63 1020.0
20260904021723 66 231 3.5 7.0 0.00 0.00 0.00 64 1020.0
20260904021719 66 209 3.5 7.0 0.00 0.00 0.00 63 1020.0
20260904021429 66 268 3.5 7.0 0.00 0.00 0.00 64 1020.0
20260904021329 66 227 3.5 7.0 0.00 0.00 0.00 63 1020.0
20260904021228 66 233 3.5 7.0 0.00 0.00 0.00 63 1020.0
20260904021129 66 238 3.5 7.0 0.00 0.00 0.00 63 1020.0
20260904021028 66 257 3.5 7.0 0.00 0.00 0.00 63 1020.0
20260904021009 66 245 3.5 7.0 0.00 0.00 0.00 63 1019.9
20260904020928 66 248 3.5 7.0 0.00 0.00 0.00 63 1019.9
20260904020829 66 254 3.5 7.0 0.00 0.00 0.00 63 1019.9
20260904020733 66 228 3.5 8.7 0.00 0.00 0.00 63 1019.9
20260904020729 66 284 3.5 8.7 0.00 0.00 0.00 63 1019.9
20260904020725 66 205 3.5 8.7 0.00 0.00 0.00 63 1020.0
20260904020721 66 217 3.5 8.7 0.00 0.00 0.00 63 1020.0
20260904020429 66 240 3.5 8.7 0.00 0.00 0.00 63 1019.9
20260904020329 66 273 3.5 8.7 0.00 0.00 0.00 63 1020.0
20260904020229 66 261 3.5 8.7 0.00 0.00 0.00 63 1020.0
20260904020129 66 248 3.5 8.7 0.00 0.00 0.00 63 1020.0
20260904020029 66 259 3.5 8.7 0.00 0.00 0.00 63 1020.0
20260904020005 66 232 3.5 8.7 0.00 0.00 0.00 63 1020.0
20260904015928 66 244 3.5 8.7 0.00 0.00 0.00 63 1020.0
20260904015828 66 221 3.5 8.7 0.00 0.00 0.00 62 1020.0
20260904015728 66 216 3.5 6.1 0.00 0.00 0.00 62 1019.9
20260904015628 66 238 3.5 6.1 0.00 0.00 0.00 63 1020.0
20260904015528 66 224 2.6 6.1 0.00 0.00 0.00 63 1020.0
20260904015504 66 213 2.6 6.1 0.00 0.00 0.00 63 1020.0
20260904015454 66 210 2.6 7.8 0.00 0.00 0.00 63 1020.0
20260904015449 66 225 2.6 6.1 0.00 0.00 0.00 63 1020.0
20260904015445 66 275 2.6 6.1 0.00 0.00 0.00 63 1020.0
20260904015437 66 227 2.6 6.1 0.00 0.00 0.00 63 1020.0
20260904015220 66 218 3.5 7.8 0.00 0.00 0.00 63 1020.0
20260904015216 66 215 2.6 7.8 0.00 0.00 0.00 63 1020.0
20260904014928 66 204 2.6 7.8 0.00 0.00 0.00 63 1020.0
20260904014829 66 219 2.6 7.8 0.00 0.00 0.00 63 1020.0
20260904014729 66 219 2.6 7.8 0.00 0.00 0.00 64 1020.0
20260904014628 66 224 2.6 7.8 0.00 0.00 0.00 63 1020.1
20260904014528 66 259 3.5 7.8 0.00 0.00 0.00 63 1020.0
20260904014505 66 259 3.5 7.8 0.00 0.00 0.00 64 1020.0
20260904014428 66 258 3.5 7.8 0.00 0.00 0.00 64 1020.0
20260904014328 66 246 3.5 7.8 0.00 0.00 0.00 63 1020.1
20260904014228 66 220 3.5 7.8 0.00 0.00 0.00 64 1020.0
20260904014128 66 217 2.6 6.1 0.00 0.00 0.00 64 1020.1
20260904014028 66 225 2.6 6.1 0.00 0.00 0.00 63 1020.0
20260904014005 66 219 2.6 6.1 0.00 0.00 0.00 63 1020.0
20260904013929 66 225 2.6 6.1 0.00 0.00 0.00 63 1020.0
20260904013829 66 223 2.6 6.1 0.00 0.00 0.00 64 1020.0
20260904013738 66 219 3.5 7.8 0.00 0.00 0.00 64 1020.0
20260904013729 66 241 2.6 6.1 0.00 0.00 0.00 64 1020.0
20260904013721 66 232 2.6 5.2 0.00 0.00 0.00 64 1020.0
20260904013717 66 221 3.5 7.8 0.00 0.00 0.00 64 1020.0
20260904013428 66 219 3.5 7.8 0.00 0.00 0.00 63 1020.0
20260904013328 66 230 3.5 7.8 0.00 0.00 0.00 64 1020.1
20260904013232 66 214 3.5 7.8 0.00 0.00 0.00 64 1020.1
20260904013128 66 232 3.5 7.8 0.00 0.00 0.00 64 1020.1
20260904013005 66 244 3.5 7.8 0.00 0.00 0.00 64 1020.2
20260904012928 66 237 3.5 7.8 0.00 0.00 0.00 64 1020.2
20260904012829 66 244 3.5 7.8 0.00 0.00 0.00 64 1020.1
20260904012729 66 232 3.5 7.8 0.00 0.00 0.00 64 1020.2
20260904012628 66 211 2.6 7.8 0.00 0.00 0.00 64 1020.2
20260904012529 66 220 2.6 6.1 0.00 0.00 0.00 63 1020.2
20260904012504 66 214 2.6 6.1 0.00 0.00 0.00 63 1020.2
20260904012429 66 228 2.6 6.1 0.00 0.00 0.00 64 1020.2
20260904012330 67 205 2.6 6.1 0.00 0.00 0.00 63 1020.1
20260904012231 67 226 2.6 6.1 0.00 0.00 0.00 63 1020.2
20260904012227 67 242 2.6 6.1 0.00 0.00 0.00 63 1020.2
20260904012219 66 213 2.6 6.1 0.00 0.00 0.00 63 1020.1
20260904012216 67 252 2.6 6.1 0.00 0.00 0.00 63 1020.2
20260904011946 67 258 3.5 7.0 0.00 0.00 0.00 63 1020.3
20260904011942 67 228 2.6 6.1 0.00 0.00 0.00 63 1020.3
20260904011938 67 204 2.6 6.1 0.00 0.00 0.00 63 1020.2
20260904011933 67 229 2.6 6.1 0.00 0.00 0.00 63 1020.2
20260904011929 67 227 2.6 6.1 0.00 0.00 0.00 63 1020.2
20260904011921 67 245 2.6 6.1 0.00 0.00 0.00 63 1020.2
20260904011917 67 230 2.6 6.1 0.00 0.00 0.00 63 1020.3
20260904011449 67 225 2.6 6.1 0.00 0.00 0.00 63 1020.3
20260904011445 67 278 2.6 6.1 0.00 0.00 0.00 63 1020.3
20260904011228 67 232 2.6 6.1 0.00 0.00 0.00 63 1020.3
20260904011217 67 230 3.5 7.0 0.00 0.00 0.00 63 1020.3
20260904011213 67 210 3.5 7.0 0.00 0.00 0.00 63 1020.3
20260904010928 67 264 3.5 7.0 0.00 0.00 0.00 63 1020.3
20260904010828 67 247 3.5 7.0 0.00 0.00 0.00 63 1020.3
20260904010729 67 237 3.5 7.0 0.00 0.00 0.00 63 1020.3
20260904010700 67 245 3.5 7.0 0.00 0.00 0.00 63 1020.3
20260904010528 67 236 3.5 7.0 0.00 0.00 0.00 63 1020.4
20260904010502 67 231 3.5 7.0 0.00 0.00 0.00 63 1020.3
20260904010429 67 247 3.5 7.0 0.00 0.00 0.00 63 1020.3
20260904010324 67 240 3.5 7.0 0.00 0.00 0.00 63 1020.3
20260904010224 67 213 3.5 7.0 0.00 0.00 0.00 63 1020.3
20260904010124 67 245 2.6 7.0 0.00 0.00 0.00 63 1020.4
20260904010002 67 248 2.6 6.1 0.00 0.00 0.00 63 1020.3
20260904005923 67 207 2.6 6.1 0.00 0.00 0.00 64 1020.3
20260904005820 67 245 2.6 6.1 0.00 0.00 0.00 63 1020.3
20260904005720 67 234 2.6 6.1 0.00 0.00 0.00 63 1020.3
20260904005618 67 257 2.6 6.1 0.00 0.00 0.00 63 1020.3
20260904005518 67 225 2.6 6.1 0.00 0.00 0.00 63 1020.3
20260904005501 67 248 2.6 7.0 0.00 0.00 0.00 63 1020.3
20260904005415 67 215 2.6 7.0 0.00 0.00 0.00 63 1020.3
20260904005311 67 217 2.6 7.0 0.00 0.00 0.00 63 1020.3
20260904005214 67 235 2.6 7.0 0.00 0.00 0.00 63 1020.3
20260904005110 67 235 2.6 7.0 0.00 0.00 0.00 63 1020.3
20260904005000 67 234 2.6 7.0 0.00 0.00 0.00 63 1020.3
20260904004910 67 246 3.5 7.0 0.00 0.00 0.00 63 1020.3
20260904004806 67 246 3.5 7.0 0.00 0.00 0.00 63 1020.3
20260904004707 67 220 3.5 7.0 0.00 0.00 0.00 63 1020.3
20260904004607 67 241 3.5 7.0 0.00 0.00 0.00 63 1020.3
20260904004507 67 255 3.5 7.0 0.00 0.00 0.00 63 1020.2
20260904004500 67 275 3.5 7.0 0.00 0.00 0.00 63 1020.2
20260904004406 67 261 3.5 7.0 0.00 0.00 0.00 63 1020.2
20260904004306 67 246 3.5 7.0 0.00 0.00 0.00 63 1020.3
20260904004210 67 203 3.5 7.0 0.00 0.00 0.00 63 1020.3
20260904004106 67 229 3.5 7.8 0.00 0.00 0.00 63 1020.3
20260904004001 67 275 3.5 7.8 0.00 0.00 0.00 63 1020.3
20260904003906 67 230 3.5 7.8 0.00 0.00 0.00 63 1020.3
20260904003805 67 229 3.5 7.8 0.00 0.00 0.00 63 1020.3
20260904003708 67 213 3.5 7.8 0.00 0.00 0.00 63 1020.3
20260904003604 67 219 3.5 7.8 0.00 0.00 0.00 63 1020.3
20260904003505 67 204 3.5 7.8 0.00 0.00 0.00 63 1020.3
20260904003501 67 203 3.5 7.8 0.00 0.00 0.00 63 1020.3
20260904003405 67 215 3.5 7.8 0.00 0.00 0.00 63 1020.3
20260904003304 67 213 3.5 7.8 0.00 0.00 0.00 63 1020.3
20260904003206 67 240 3.5 7.8 0.00 0.00 0.00 63 1020.3
20260904003101 67 227 3.5 6.1 0.00 0.00 0.00 63 1020.3
20260904003001 67 301 3.5 7.0 0.00 0.00 0.00 63 1020.3
20260904002901 67 246 3.5 7.0 0.00 0.00 0.00 64 1020.3
20260904002802 67 225 3.5 7.0 0.00 0.00 0.00 64 1020.3
20260904002706 67 236 3.5 7.0 0.00 0.00 0.00 64 1020.3
20260904002601 67 263 2.6 7.0 0.00 0.00 0.00 64 1020.3
20260904002501 67 238 2.6 7.0 0.00 0.00 0.00 64 1020.3
20260904002401 67 210 2.6 7.0 0.00 0.00 0.00 64 1020.3
20260904002301 67 213 2.6 7.0 0.00 0.00 0.00 64 1020.3
20260904002202 67 236 2.6 7.0 0.00 0.00 0.00 64 1020.3
20260904002101 67 246 2.6 7.0 0.00 0.00 0.00 64 1020.3
20260904002001 67 242 2.6 6.1 0.00 0.00 0.00 64 1020.3
20260904001901 67 242 2.6 6.1 0.00 0.00 0.00 64 1020.3
20260904001801 67 230 2.6 6.1 0.00 0.00 0.00 65 1020.3
20260904001724 66 209 3.5 7.0 0.00 0.00 0.00 66 1020.5
20260904001720 67 230 2.6 7.0 0.00 0.00 0.00 65 1020.3
20260904001712 67 221 2.6 7.0 0.00 0.00 0.00 65 1020.3
20260904001704 67 245 2.6 7.0 0.00 0.00 0.00 65 1020.4
20260904001444 67 220 2.6 7.0 0.00 0.00 0.00 65 1020.4
20260904001441 67 213 3.5 7.0 0.00 0.00 0.00 66 1020.4
20260904001225 67 220 3.5 7.0 0.00 0.00 0.00 65 1020.4
20260904001217 67 211 3.5 7.0 0.00 0.00 0.00 66 1020.4
20260904001213 66 209 3.5 7.0 0.00 0.00 0.00 66 1020.5
20260904000859 66 221 3.5 7.0 0.00 0.00 0.00 66 1020.5
20260904000758 66 226 3.5 7.0 0.00 0.00 0.00 66 1020.5
20260904000728 66 246 3.5 7.0 0.00 0.00 0.00 66 1020.6
20260904000722 66 240 3.5 7.0 0.00 0.00 0.00 65 1020.5
20260904000714 66 238 3.5 7.0 0.00 0.00 0.00 66 1020.5
20260904000458 66 246 3.5 7.0 0.00 0.00 0.00 66 1020.6
20260904000352 66 229 3.5 7.0 0.00 0.00 0.00 66 1020.6
20260904000253 66 231 3.5 7.0 0.00 0.00 0.00 66 1020.6
20260904000153 66 238 3.5 7.0 0.00 0.00 0.00 67 1020.6
20260904000052 66 221 3.5 7.0 0.00 0.00 0.00 67 1020.7
20260904000002 66 216 3.5 7.0 0.00 0.00 0.00 67 1020.6
20260903235952 66 215 3.5 7.0 0.00 0.00 0.00 67 1020.6
20260903235846 65 264 3.5 7.0 0.00 0.00 0.00 67 1020.6
20260903235746 65 234 2.6 7.0 0.00 0.00 0.00 67 1020.7
20260903235730 65 214 2.6 4.3 0.00 0.00 0.00 68 1020.7
20260903235720 65 243 2.6 6.1 0.00 0.00 0.00 68 1020.6
20260903235712 65 246 2.6 6.1 0.00 0.00 0.00 68 1020.6
20260903235448 65 217 2.6 4.3 0.00 0.00 0.00 68 1020.7
20260903235444 65 232 1.7 3.5 0.00 0.00 0.00 70 1020.7
20260903235438 65 227 1.7 4.3 0.00 0.00 0.00 68 1020.6
20260903235434 65 246 1.7 4.3 0.00 0.00 0.00 68 1020.6
20260903235217 65 234 1.7 4.3 0.00 0.00 0.00 68 1020.7
20260903235209 65 238 1.7 3.5 0.00 0.00 0.00 68 1020.7
20260903235205 65 229 1.7 3.5 0.00 0.00 0.00 68 1020.7
20260903234943 65 229 1.7 3.5 0.00 0.00 0.00 70 1020.7
20260903234939 65 225 1.7 3.5 0.00 0.00 0.00 69 1020.7
20260903234935 65 238 1.7 3.5 0.00 0.00 0.00 69 1020.7
20260903234720 65 233 1.7 3.5 0.00 0.00 0.00 69 1020.6
20260903234712 65 233 1.7 3.5 0.00 0.00 0.00 70 1020.6
20260903234441 65 232 1.7 3.5 0.00 0.00 0.00 70 1020.7
20260903234336 65 232 0.9 3.5 0.00 0.00 0.00 70 1020.7
20260903234236 65 290 0.9 3.5 0.00 0.00 0.00 70 1020.7
20260903234230 65 294 0.9 2.6 0.00 0.00 0.00 71 1020.7
20260903234221 65 290 0.9 3.5 0.00 0.00 0.00 71 1020.7
20260903234213 65 290 0.9 2.6 0.00 0.00 0.00 70 1020.7
20260903233949 65 294 0.0 1.7 0.00 0.00 0.00 71 1020.7
20260903233945 65 294 0.9 1.7 0.00 0.00 0.00 71 1020.7
20260903233941 65 294 0.9 1.7 0.00 0.00 0.00 71 1020.7
20260903233937 65 294 0.9 1.7 0.00 0.00 0.00 72 1020.7
20260903233720 65 294 0.0 1.7 0.00 0.00 0.00 72 1020.7
20260903233712 65 294 0.0 1.7 0.00 0.00 0.00 71 1020.7
20260903233430 65 294 0.0 1.7 0.00 0.00 0.00 71 1020.7
20260903233330 65 294 0.0 1.7 0.00 0.00 0.00 71 1020.7
20260903233230 65 294 0.0 1.7 0.00 0.00 0.00 71 1020.7
20260903233133 65 294 0.0 0.0 0.00 0.00 0.00 71 1020.7
20260903233029 65 294 0.0 0.0 0.00 0.00 0.00 72 1020.7
20260903233001 65 294 0.0 0.9 0.00 0.00 0.00 72 1020.7
20260903232930 65 294 0.0 0.9 0.00 0.00 0.00 72 1020.7
20260903232830 65 294 0.0 0.9 0.00 0.00 0.00 72 1020.7
20260903232729 65 294 0.0 0.9 0.00 0.00 0.00 71 1020.8
20260903232632 65 294 0.0 0.9 0.00 0.00 0.00 71 1020.7
20260903232502 65 294 0.0 0.9 0.00 0.00 0.00 71 1020.8
20260903232429 65 294 0.0 0.9 0.00 0.00 0.00 71 1020.8
20260903232328 65 294 0.0 1.7 0.00 0.00 0.00 72 1020.7
20260903232225 65 294 0.0 1.7 0.00 0.00 0.00 72 1020.7
20260903232121 65 294 0.0 1.7 0.00 0.00 0.00 72 1020.7
20260903232001 65 294 0.0 1.7 0.00 0.00 0.00 72 1020.7
20260903231920 65 294 0.0 1.7 0.00 0.00 0.00 72 1020.8
20260903231820 65 294 0.0 1.7 0.00 0.00 0.00 72 1020.8
20260903231720 65 294 0.0 1.7 0.00 0.00 0.00 72 1020.8
20260903231616 65 294 0.0 1.7 0.00 0.00 0.00 72 1020.8
20260903231500 65 294 0.0 1.7 0.00 0.00 0.00 71 1020.7
20260903231416 65 294 0.0 1.7 0.00 0.00 0.00 71 1020.7
20260903231317 65 294 0.0 1.7 0.00 0.00 0.00 71 1020.7
20260903231213 65 294 0.0 1.7 0.00 0.00 0.00 71 1020.8
20260903231112 65 294 0.0 1.7 0.00 0.00 0.00 72 1020.8
20260903231001 65 294 0.0 1.7 0.00 0.00 0.00 71 1020.8
20260903230912 65 294 0.0 1.7 0.00 0.00 0.00 72 1020.8
20260903230810 65 294 0.0 1.7 0.00 0.00 0.00 72 1020.8
20260903230708 65 294 0.0 1.7 0.00 0.00 0.00 72 1020.8
20260903230604 65 294 0.0 1.7 0.00 0.00 0.00 70 1020.8
20260903230503 65 294 0.9 1.7 0.00 0.00 0.00 71 1020.8
20260903230402 65 294 0.9 1.7 0.00 0.00 0.00 72 1020.9
20260903230302 65 294 0.9 1.7 0.00 0.00 0.00 72 1020.8
20260903230201 65 294 0.9 1.7 0.00 0.00 0.00 72 1020.8
20260903230001 65 294 0.9 1.7 0.00 0.00 0.00 71 1020.8
20260903225901 65 294 0.0 1.7 0.00 0.00 0.00 71 1020.8
20260903225801 65 294 0.0 1.7 0.00 0.00 0.00 71 1020.8
20260903225701 65 294 0.0 1.7 0.00 0.00 0.00 71 1020.8
20260903225601 65 294 0.0 1.7 0.00 0.00 0.00 71 1020.9
20260903225501 65 294 0.0 1.7 0.00 0.00 0.00 71 1020.8
20260903225401 65 294 0.0 1.7 0.00 0.00 0.00 71 1020.8
20260903225301 65 294 0.0 1.7 0.00 0.00 0.00 71 1020.8
20260903225201 65 294 0.0 1.7 0.00 0.00 0.00 71 1020.9
20260903225101 65 294 0.0 1.7 0.00 0.00 0.00 71 1020.8
20260903225001 65 294 0.0 1.7 0.00 0.00 0.00 71 1020.9
20260903224900 65 294 0.0 1.7 0.00 0.00 0.00 71 1020.9
20260903224801 65 294 0.0 1.7 0.00 0.00 0.00 72 1020.9
20260903224701 65 294 0.0 1.7 0.00 0.00 0.00 72 1020.9
20260903224600 65 294 0.0 1.7 0.00 0.00 0.00 72 1020.9
20260903224500 65 294 0.0 0.9 0.00 0.00 0.00 72 1020.9
20260903224401 65 294 0.0 0.9 0.00 0.00 0.00 72 1020.9
20260903224301 65 294 0.0 0.9 0.00 0.00 0.00 72 1020.9
20260903224201 65 294 0.0 0.9 0.00 0.00 0.00 71 1020.9
20260903224101 65 294 0.0 0.9 0.00 0.00 0.00 71 1020.9
20260903224001 65 294 0.0 0.9 0.00 0.00 0.00 71 1020.8
20260903223901 65 294 0.0 0.9 0.00 0.00 0.00 71 1020.9
20260903223801 65 294 0.0 0.9 0.00 0.00 0.00 72 1020.8
20260903223701 65 294 0.0 0.9 0.00 0.00 0.00 72 1020.9
20260903223601 65 294 0.0 0.9 0.00 0.00 0.00 72 1020.8
20260903223501 65 294 0.0 0.9 0.00 0.00 0.00 72 1020.8
20260903223400 65 294 0.0 0.9 0.00 0.00 0.00 71 1020.8
20260903223300 65 294 0.0 0.0 0.00 0.00 0.00 71 1020.8
20260903223201 65 294 0.0 0.0 0.00 0.00 0.00 71 1020.9
20260903223101 65 294 0.0 0.0 0.00 0.00 0.00 71 1020.9
20260903223002 65 294 0.0 0.0 0.00 0.00 0.00 71 1020.9
20260903222900 65 294 0.0 0.0 0.00 0.00 0.00 71 1020.9
20260903222757 65 294 0.0 0.0 0.00 0.00 0.00 71 1020.9
20260903222654 65 294 0.0 0.0 0.00 0.00 0.00 71 1020.9
20260903222553 65 294 0.0 0.0 0.00 0.00 0.00 71 1020.9
20260903222500 65 294 0.0 0.0 0.00 0.00 0.00 71 1020.8
20260903222455 65 294 0.0 0.0 0.00 0.00 0.00 71 1020.8
20260903222450 65 294 0.0 0.0 0.00 0.00 0.00 71 1020.8
20260903222442 65 294 0.0 0.0 0.00 0.00 0.00 71 1020.9
20260903222438 65 294 0.0 0.0 0.00 0.00 0.00 72 1020.8
20260903222220 65 294 0.0 0.0 0.00 0.00 0.00 71 1020.8
20260903222212 65 294 0.0 0.0 0.00 0.00 0.00 71 1020.8
20260903221951 65 294 0.0 0.0 0.00 0.00 0.00 71 1020.8
20260903221848 65 294 0.0 0.0 0.00 0.00 0.00 71 1020.9
20260903221746 65 294 0.0 0.0 0.00 0.00 0.00 71 1020.9
20260903221647 65 294 0.0 0.0 0.00 0.00 0.00 71 1020.8
20260903221545 65 294 0.0 0.0 0.00 0.00 0.00 71 1020.9
20260903221501 65 294 0.0 0.0 0.00 0.00 0.00 71 1020.9
20260903221445 65 294 0.0 0.0 0.00 0.00 0.00 71 1020.9
20260903221343 65 294 0.0 0.9 0.00 0.00 0.00 71 1020.9
20260903221241 65 294 0.0 0.9 0.00 0.00 0.00 71 1020.9
20260903221135 65 294 0.0 0.9 0.00 0.00 0.00 71 1021.0
20260903221035 65 294 0.0 0.9 0.00 0.00 0.00 71 1021.0
20260903221000 65 294 0.0 0.9 0.00 0.00 0.00 71 1021.0
20260903220935 65 294 0.0 0.9 0.00 0.00 0.00 71 1021.0
20260903220835 65 294 0.0 0.9 0.00 0.00 0.00 71 1021.0
20260903220734 65 294 0.0 1.7 0.00 0.00 0.00 71 1021.1
20260903220635 65 294 0.9 2.6 0.00 0.00 0.00 71 1021.1
20260903220533 65 294 0.9 3.5 0.00 0.00 0.00 71 1021.1
20260903220500 65 294 0.9 3.5 0.00 0.00 0.00 71 1021.1
20260903220434 65 294 0.9 3.5 0.00 0.00 0.00 70 1021.1
20260903220329 65 294 0.9 3.5 0.00 0.00 0.00 70 1021.1
20260903220229 65 294 0.9 3.5 0.00 0.00 0.00 70 1021.0
20260903220220 65 294 0.9 3.5 0.00 0.00 0.00 70 1021.0
20260903220212 65 294 0.9 3.5 0.00 0.00 0.00 70 1021.1
20260903215929 65 294 0.9 3.5 0.00 0.00 0.00 70 1021.1
20260903215829 65 294 0.9 3.5 0.00 0.00 0.00 70 1021.1
20260903215729 65 294 0.9 3.5 0.00 0.00 0.00 70 1021.1
20260903215630 65 294 0.9 3.5 0.00 0.00 0.00 70 1021.1
20260903215529 65 273 0.9 2.6 0.00 0.00 0.00 70 1021.1
20260903215501 65 267 0.0 2.6 0.00 0.00 0.00 70 1021.1
20260903215428 65 266 0.0 2.6 0.00 0.00 0.00 70 1021.1
20260903215328 65 296 0.0 2.6 0.00 0.00 0.00 70 1021.1
20260903215229 65 296 0.0 2.6 0.00 0.00 0.00 70 1021.1
20260903215129 65 296 0.0 0.0 0.00 0.00 0.00 71 1021.1
20260903215001 65 296 0.0 0.0 0.00 0.00 0.00 71 1021.0
20260903214929 65 296 0.0 0.0 0.00 0.00 0.00 71 1021.0
20260903214829 65 296 0.0 0.0 0.00 0.00 0.00 71 1021.1
20260903214730 65 296 0.0 0.0 0.00 0.00 0.00 70 1021.0
20260903214719 65 296 0.0 0.0 0.00 0.00 0.00 70 1021.0
20260903214715 65 296 0.0 0.0 0.00 0.00 0.00 70 1020.9
20260903214429 65 296 0.0 0.0 0.00 0.00 0.00 70 1020.9
20260903214329 65 296 0.0 0.0 0.00 0.00 0.00 70 1021.0
20260903214229 65 296 0.0 0.0 0.00 0.00 0.00 70 1020.9
20260903214129 65 296 0.0 0.9 0.00 0.00 0.00 70 1020.9
20260903214000 65 296 0.0 0.9 0.00 0.00 0.00 70 1020.9
20260903213929 65 296 0.0 0.9 0.00 0.00 0.00 70 1020.9
20260903213829 65 296 0.0 1.7 0.00 0.00 0.00 70 1020.9
20260903213729 65 296 0.0 1.7 0.00 0.00 0.00 70 1020.9
20260903213629 65 296 0.0 1.7 0.00 0.00 0.00 70 1020.9
20260903213528 65 296 0.0 1.7 0.00 0.00 0.00 70 1020.8
20260903213500 65 296 0.0 1.7 0.00 0.00 0.00 70 1020.9
20260903213428 65 296 0.0 1.7 0.00 0.00 0.00 70 1020.9
20260903213329 65 296 0.0 1.7 0.00 0.00 0.00 70 1020.9
20260903213229 65 296 0.0 1.7 0.00 0.00 0.00 70 1020.9
20260903213129 65 296 0.0 1.7 0.00 0.00 0.00 71 1020.9
20260903213002 65 296 0.9 1.7 0.00 0.00 0.00 71 1020.9
20260903212929 65 296 0.9 1.7 0.00 0.00 0.00 70 1020.9
20260903212828 65 296 0.0 1.7 0.00 0.00 0.00 70 1020.9
20260903212729 65 296 0.0 1.7 0.00 0.00 0.00 70 1020.9
20260903212629 65 296 0.0 1.7 0.00 0.00 0.00 71 1020.9
20260903212501 65 296 0.0 1.7 0.00 0.00 0.00 71 1020.9
20260903212429 65 296 0.0 1.7 0.00 0.00 0.00 71 1020.9
20260903212329 65 296 0.0 1.7 0.00 0.00 0.00 71 1020.9
20260903212229 65 296 0.0 1.7 0.00 0.00 0.00 71 1020.9
20260903212129 65 296 0.0 1.7 0.00 0.00 0.00 72 1020.9
20260903212029 65 296 0.0 0.9 0.00 0.00 0.00 72 1020.9
20260903211929 65 296 0.0 0.9 0.00 0.00 0.00 71 1020.8
20260903211829 65 296 0.0 1.7 0.00 0.00 0.00 71 1020.8
20260903211729 65 296 0.0 1.7 0.00 0.00 0.00 72 1020.8
20260903211629 65 296 0.9 3.5 0.00 0.00 0.00 72 1020.8
20260903211528 65 296 0.9 3.5 0.00 0.00 0.00 71 1020.8
20260903211428 65 296 0.9 3.5 0.00 0.00 0.00 71 1020.9
20260903211328 65 296 0.9 3.5 0.00 0.00 0.00 71 1020.8
20260903211228 65 296 0.9 3.5 0.00 0.00 0.00 71 1020.8
20260903211128 65 296 1.7 3.5 0.00 0.00 0.00 71 1020.8
20260903211029 65 296 1.7 3.5 0.00 0.00 0.00 71 1020.8
20260903210928 65 296 1.7 3.5 0.00 0.00 0.00 71 1020.8
20260903210828 65 296 1.7 3.5 0.00 0.00 0.00 71 1020.7
20260903210729 65 296 1.7 3.5 0.00 0.00 0.00 71 1020.8
20260903210629 65 296 1.7 3.5 0.00 0.00 0.00 71 1020.7
20260903210529 65 238 1.7 2.6 0.00 0.00 0.00 71 1020.7
20260903210429 65 223 1.7 2.6 0.00 0.00 0.00 71 1020.6
20260903210329 65 223 1.7 2.6 0.00 0.00 0.00 71 1020.7
20260903210229 65 223 0.9 2.6 0.00 0.00 0.00 71 1020.7
20260903210128 64 223 0.9 2.6 0.00 0.00 0.00 71 1020.6
20260903210029 64 223 0.9 2.6 0.00 0.00 0.00 71 1020.7
20260903205929 64 223 0.9 1.7 0.00 0.00 0.00 71 1020.6
20260903205829 64 223 0.9 2.6 0.00 0.00 0.00 71 1020.6
20260903205729 64 223 0.9 2.6 0.00 0.00 0.00 71 1020.6
20260903205629 65 223 0.9 2.6 0.00 0.00 0.00 71 1020.6
20260903205529 65 223 0.9 2.6 0.00 0.00 0.00 71 1020.6
20260903205428 65 223 0.9 2.6 0.00 0.00 0.00 71 1020.6
20260903205329 64 223 0.9 2.6 0.00 0.00 0.00 71 1020.6
20260903205229 64 223 0.9 2.6 0.00 0.00 0.00 70 1020.6
20260903205129 64 223 0.9 2.6 0.00 0.00 0.00 70 1020.6
20260903205029 64 223 0.9 2.6 0.00 0.00 0.00 70 1020.6
20260903204929 64 223 0.9 2.6 0.00 0.00 0.00 70 1020.7
20260903204829 64 223 0.9 2.6 0.00 0.00 0.00 70 1020.6
20260903204729 64 223 0.9 2.6 0.00 0.00 0.00 69 1020.6
20260903204629 64 222 0.9 2.6 0.00 0.00 0.00 69 1020.7
20260903204529 64 223 0.0 1.7 0.00 0.00 0.00 69 1020.7
20260903204428 64 223 0.0 1.7 0.00 0.00 0.00 69 1020.7
20260903204329 64 223 0.0 1.7 0.00 0.00 0.00 70 1020.7
20260903204229 64 222 0.0 0.9 0.00 0.00 0.00 70 1020.8
20260903204129 65 223 0.0 0.9 0.00 0.00 0.00 71 1020.9
20260903204029 65 223 0.0 0.9 0.00 0.00 0.00 70 1020.9
20260903203929 65 223 0.0 0.9 0.00 0.00 0.00 69 1020.9
20260903203829 65 223 0.0 0.9 0.00 0.00 0.00 68 1021.0
20260903203729 65 223 0.0 0.9 0.00 0.00 0.00 69 1020.9
20260903203622 65 223 0.0 0.9 0.00 0.00 0.00 69 1021.0
20260903203523 65 223 0.0 0.9 0.00 0.00 0.00 70 1020.9
20260903203422 65 223 0.0 0.9 0.00 0.00 0.00 70 1020.9
20260903203323 65 223 0.0 0.9 0.00 0.00 0.00 70 1020.9
20260903203223 65 223 0.0 0.9 0.00 0.00 0.00 70 1020.9
20260903203123 65 223 0.0 0.9 0.00 0.00 0.00 70 1020.9
20260903203021 65 223 0.0 0.9 0.00 0.00 0.00 70 1021.0
20260903202921 65 223 0.0 0.9 0.00 0.00 0.00 70 1021.0
20260903202821 65 223 0.0 0.9 0.00 0.00 0.00 70 1020.9
20260903202800 65 223 0.9 1.7 0.00 0.00 0.00 68 1021.0
20260903202757 65 223 0.0 0.9 0.00 0.00 0.00 69 1021.0
20260903202752 65 223 0.0 1.7 0.00 0.00 0.00 68 1021.0
20260903202748 65 223 0.9 1.7 0.00 0.00 0.00 68 1021.0
20260903202418 65 223 0.9 1.7 0.00 0.00 0.00 68 1021.0
20260903202317 65 223 0.9 1.7 0.00 0.00 0.00 69 1021.0
20260903202216 65 223 0.9 1.7 0.00 0.00 0.00 69 1021.0
20260903202117 65 223 0.9 1.7 0.00 0.00 0.00 68 1021.1
20260903202017 65 223 0.9 1.7 0.00 0.00 0.00 68 1021.1
20260903201917 65 223 0.9 1.7 0.00 0.00 0.00 68 1021.1
20260903201815 65 223 0.9 1.7 0.00 0.00 0.00 67 1021.1
20260903201713 65 223 0.9 1.7 0.00 0.00 0.00 67 1021.2
20260903201653 65 223 0.9 1.7 0.00 0.00 0.00 67 1021.1
20260903201648 65 223 0.9 1.7 0.00 0.00 0.00 67 1021.2
20260903201644 65 223 0.9 1.7 0.00 0.00 0.00 67 1021.1
20260903201411 65 223 0.9 1.7 0.00 0.00 0.00 67 1021.1
20260903201309 65 223 0.9 1.7 0.00 0.00 0.00 67 1021.1
20260903201209 65 223 0.9 1.7 0.00 0.00 0.00 67 1021.1
20260903201107 65 223 0.9 1.7 0.00 0.00 0.00 68 1021.1
20260903201005 65 223 0.9 1.7 0.00 0.00 0.00 68 1021.0
20260903200903 65 223 0.9 1.7 0.00 0.00 0.00 68 1021.0
20260903200803 65 223 0.9 1.7 0.00 0.00 0.00 68 1021.0
20260903200702 65 223 0.0 1.7 0.00 0.00 0.00 68 1021.0
20260903200602 65 223 0.0 1.7 0.00 0.00 0.00 69 1021.0
20260903200501 65 223 0.0 1.7 0.00 0.00 0.00 68 1020.9
20260903200402 65 223 0.0 1.7 0.00 0.00 0.00 68 1020.9
20260903200301 65 223 0.0 1.7 0.00 0.00 0.00 68 1020.8
20260903200201 65 223 0.0 0.9 0.00 0.00 0.00 68 1020.8
20260903200001 65 223 0.0 0.9 0.00 0.00 0.00 68 1020.8
20260903195928 65 223 0.0 0.9 0.00 0.00 0.00 68 1020.8
20260903195901 65 223 0.0 0.9 0.00 0.00 0.00 69 1020.8
20260903195801 65 223 0.0 0.9 0.00 0.00 0.00 69 1020.8
20260903195701 65 223 0.0 0.9 0.00 0.00 0.00 69 1020.8
20260903195600 66 223 0.0 0.9 0.00 0.00 0.00 67 1020.7
20260903195500 66 223 0.0 0.9 0.00 0.00 0.00 67 1020.7
20260903195417 66 223 0.0 1.7 0.00 0.00 0.00 67 1020.6
20260903195413 66 223 0.0 0.9 0.00 0.00 0.00 67 1020.7
20260903195409 66 223 0.0 0.9 0.00 0.00 0.00 67 1020.7
20260903195405 66 223 0.0 0.9 0.00 0.00 0.00 68 1020.7
20260903195401 66 223 0.0 0.9 0.00 0.00 0.00 68 1020.7
20260903195356 66 223 0.0 0.9 0.00 0.00 0.00 68 1020.7
20260903195352 66 223 0.0 0.9 0.00 0.00 0.00 67 1020.7
20260903195346 66 223 0.0 0.9 0.00 0.00 0.00 67 1020.7
20260903194911 66 223 0.0 0.9 0.00 0.00 0.00 67 1020.7
20260903194907 66 223 0.0 0.9 0.00 0.00 0.00 68 1020.7
20260903194903 66 223 0.0 0.9 0.00 0.00 0.00 67 1020.7
20260903194647 66 223 0.0 0.9 0.00 0.00 0.00 67 1020.6
20260903194644 66 223 0.0 0.9 0.00 0.00 0.00 67 1020.6
20260903194401 66 223 0.0 1.7 0.00 0.00 0.00 67 1020.6
20260903194300 66 223 0.9 1.7 0.00 0.00 0.00 67 1020.6
20260903194200 66 223 0.9 1.7 0.00 0.00 0.00 67 1020.6
20260903194100 66 223 0.9 1.7 0.00 0.00 0.00 66 1020.6
20260903194000 66 223 0.9 1.7 0.00 0.00 0.00 66 1020.6
20260903193901 66 223 0.9 1.7 0.00 0.00 0.00 66 1020.6
20260903193801 67 223 0.9 1.7 0.00 0.00 0.00 66 1020.7
20260903193701 67 223 0.9 1.7 0.00 0.00 0.00 66 1020.7
20260903193601 67 223 0.9 1.7 0.00 0.00 0.00 66 1020.7
20260903193500 67 223 0.9 1.7 0.00 0.00 0.00 66 1020.7
20260903193429 67 223 0.9 2.6 0.00 0.00 0.00 66 1020.7
20260903193402 67 223 0.9 2.6 0.00 0.00 0.00 66 1020.6
20260903193300 67 223 0.9 2.6 0.00 0.00 0.00 66 1020.6
20260903193200 67 223 0.9 2.6 0.00 0.00 0.00 66 1020.6
20260903193100 67 223 0.9 2.6 0.00 0.00 0.00 65 1020.6
20260903193001 67 223 0.9 2.6 0.00 0.00 0.00 66 1020.6
20260903192932 67 223 1.7 2.6 0.00 0.00 0.00 66 1020.6
20260903192901 67 223 1.7 2.6 0.00 0.00 0.00 65 1020.6
20260903192801 67 223 1.7 2.6 0.00 0.00 0.00 65 1020.5
20260903192701 67 223 1.7 2.6 0.00 0.00 0.00 65 1020.5
20260903192601 67 223 1.7 2.6 0.00 0.00 0.00 65 1020.5
20260903192501 67 223 1.7 2.6 0.00 0.00 0.00 65 1020.5
20260903192400 67 223 1.7 2.6 0.00 0.00 0.00 65 1020.5
20260903192300 67 223 1.7 2.6 0.00 0.00 0.00 65 1020.5
20260903192201 67 223 1.7 2.6 0.00 0.00 0.00 65 1020.5
20260903192101 67 222 1.7 2.6 0.00 0.00 0.00 65 1020.5
20260903192001 67 222 1.7 2.6 0.00 0.00 0.00 64 1020.4
20260903191900 67 222 1.7 2.6 0.00 0.00 0.00 64 1020.4
20260903191800 67 222 0.9 2.6 0.00 0.00 0.00 64 1020.4
20260903191701 67 222 1.7 2.6 0.00 0.00 0.00 64 1020.4
20260903191601 67 222 1.7 2.6 0.00 0.00 0.00 64 1020.4
20260903191501 67 222 0.9 2.6 0.00 0.00 0.00 64 1020.4
20260903191425 67 222 0.9 2.6 0.00 0.00 0.00 64 1020.4
20260903191401 68 222 0.9 2.6 0.00 0.00 0.00 64 1020.4
20260903191301 68 222 0.9 2.6 0.00 0.00 0.00 64 1020.3
20260903191201 68 222 0.9 2.6 0.00 0.00 0.00 64 1020.3
20260903191101 68 222 0.9 2.6 0.00 0.00 0.00 64 1020.4
20260903191001 68 222 0.9 2.6 0.00 0.00 0.00 64 1020.3
20260903190925 68 222 0.9 2.6 0.00 0.00 0.00 64 1020.3
20260903190919 68 222 0.9 2.6 0.00 0.00 0.00 63 1020.3
20260903190911 68 222 0.9 2.6 0.00 0.00 0.00 64 1020.4
20260903190904 68 222 0.9 2.6 0.00 0.00 0.00 64 1020.4
20260903190859 68 222 0.9 2.6 0.00 0.00 0.00 64 1020.3
20260903190639 68 222 0.9 2.6 0.00 0.00 0.00 64 1020.3
20260903190635 68 222 0.9 2.6 0.00 0.00 0.00 64 1020.3
20260903190400 68 222 0.9 2.6 0.00 0.00 0.00 63 1020.3
20260903190303 68 222 0.9 2.6 0.00 0.00 0.00 63 1020.3
20260903190201 68 222 1.7 2.6 0.00 0.00 0.00 63 1020.3
20260903190147 68 221 1.7 3.5 0.00 0.00 0.00 63 1020.3
20260903190140 68 221 1.7 2.6 0.00 0.00 0.00 63 1020.3
20260903190136 68 221 1.7 3.5 0.00 0.00 0.00 63 1020.3
20260903185901 68 221 1.7 3.5 0.00 0.00 0.00 63 1020.3
20260903185801 68 221 1.7 3.5 0.00 0.00 0.00 63 1020.3
20260903185701 68 221 1.7 3.5 0.00 0.00 0.00 63 1020.3
20260903185600 68 221 1.7 3.5 0.00 0.00 0.00 63 1020.3
20260903185501 68 221 1.7 4.3 0.00 0.00 0.00 63 1020.3
20260903185422 68 221 1.7 4.3 0.00 0.00 0.00 63 1020.2
20260903185401 68 221 1.7 4.3 0.00 0.00 0.00 62 1020.2
20260903185301 68 221 1.7 4.3 0.00 0.00 0.00 63 1020.3
20260903185201 68 221 1.7 4.3 0.00 0.00 0.00 63 1020.3
20260903185100 68 221 1.7 4.3 0.00 0.00 0.00 63 1020.3
20260903185001 68 225 2.6 4.3 0.00 0.00 0.00 63 1020.2
20260903184922 68 227 2.6 4.3 0.00 0.00 0.00 62 1020.2
20260903184901 68 227 2.6 4.3 0.00 0.00 0.00 63 1020.2
20260903184801 69 229 2.6 4.3 0.00 0.00 0.00 62 1020.2
20260903184700 69 253 2.6 4.3 0.00 0.00 0.00 62 1020.2
20260903184600 69 221 2.6 4.3 0.00 0.00 0.00 62 1020.2
20260903184501 69 220 2.6 4.3 0.00 0.00 0.00 63 1020.2
20260903184422 69 220 2.6 4.3 0.00 0.00 0.00 62 1020.1
20260903184401 69 220 1.7 4.3 0.00 0.00 0.00 62 1020.1
20260903184300 69 214 1.7 4.3 0.00 0.00 0.00 62 1020.2
20260903184201 69 214 1.7 4.3 0.00 0.00 0.00 62 1020.1
20260903184101 69 213 1.7 4.3 0.00 0.00 0.00 62 1020.2
20260903184001 69 229 1.7 4.3 0.00 0.00 0.00 61 1020.2
20260903183901 69 236 1.7 4.3 0.00 0.00 0.00 61 1020.1
20260903183801 69 209 1.7 3.5 0.00 0.00 0.00 61 1020.1
20260903183700 69 250 1.7 3.5 0.00 0.00 0.00 61 1020.2
20260903183601 69 249 1.7 2.6 0.00 0.00 0.00 61 1020.2
20260903183500 69 259 1.7 2.6 0.00 0.00 0.00 61 1020.1
20260903183420 69 259 1.7 3.5 0.00 0.00 0.00 61 1020.2
20260903183400 69 260 1.7 5.2 0.00 0.00 0.00 61 1020.2
20260903183300 69 259 1.7 5.2 0.00 0.00 0.00 61 1020.1
20260903183200 69 260 1.7 5.2 0.00 0.00 0.00 61 1020.2
20260903183100 69 259 1.7 5.2 0.00 0.00 0.00 61 1020.1
20260903183000 69 259 2.6 5.2 0.00 0.00 0.00 61 1020.1
20260903182901 69 259 2.6 5.2 0.00 0.00 0.00 60 1020.1
20260903182802 69 259 2.6 5.2 0.00 0.00 0.00 60 1020.1
20260903182701 70 259 2.6 5.2 0.00 0.00 0.00 60 1020.1
20260903182601 70 259 2.6 5.2 0.00 0.00 0.00 60 1020.1
20260903182500 70 260 2.6 5.2 0.00 0.00 0.00 60 1020.1
20260903182400 70 267 2.6 5.2 0.00 0.00 0.00 60 1020.1
20260903182300 70 268 2.6 5.2 0.00 0.00 0.00 60 1020.1
20260903182201 70 267 2.6 5.2 0.00 0.00 0.00 59 1020.1
20260903182101 70 270 2.6 5.2 0.00 0.00 0.00 59 1020.0
20260903182000 70 270 2.6 5.2 0.00 0.00 0.00 59 1020.0
20260903181916 70 280 2.6 5.2 0.00 0.00 0.00 59 1020.1
20260903181901 70 285 2.6 5.2 0.00 0.00 0.00 59 1020.1
20260903181800 70 225 2.6 5.2 0.00 0.00 0.00 59 1020.0
20260903181704 70 259 2.6 5.2 0.00 0.00 0.00 59 1020.0
20260903181601 70 257 2.6 5.2 0.00 0.00 0.00 59 1020.0
20260903181501 70 257 2.6 5.2 0.00 0.00 0.00 59 1019.9
20260903181417 70 261 1.7 5.2 0.00 0.00 0.00 59 1019.9
20260903181401 70 266 1.7 5.2 0.00 0.00 0.00 59 1019.9
20260903181301 70 268 1.7 5.2 0.00 0.00 0.00 59 1019.9
20260903181201 70 247 1.7 4.3 0.00 0.00 0.00 58 1020.0
20260903181100 70 247 1.7 4.3 0.00 0.00 0.00 58 1020.0
20260903181000 70 248 1.7 4.3 0.00 0.00 0.00 58 1019.9
20260903180916 70 248 1.7 4.3 0.00 0.00 0.00 59 1020.0
20260903180900 70 247 1.7 4.3 0.00 0.00 0.00 59 1020.0
20260903180801 71 237 1.7 5.2 0.00 0.00 0.00 58 1019.9
20260903180701 71 236 1.7 5.2 0.00 0.00 0.00 58 1019.9
20260903180600 71 234 1.7 5.2 0.00 0.00 0.00 58 1019.9
20260903180500 71 234 1.7 5.2 0.00 0.00 0.00 58 1019.9
20260903180401 71 233 2.6 5.2 0.00 0.00 0.00 57 1019.9
20260903180300 71 233 2.6 5.2 0.00 0.00 0.00 58 1019.9
20260903180200 71 232 2.6 5.2 0.00 0.00 0.00 57 1019.9
20260903180100 71 233 2.6 5.2 0.00 0.00 0.00 57 1019.8
20260903180001 71 269 2.6 5.2 0.00 0.00 0.00 57 1019.9
20260903175901 71 269 2.6 5.2 0.00 0.00 0.00 57 1019.9
20260903175801 71 245 2.6 4.3 0.00 0.00 0.00 57 1019.8
20260903175701 71 261 2.6 4.3 0.00 0.00 0.00 57 1019.8
20260903175600 71 261 2.6 4.3 0.00 0.00 0.00 57 1019.8
20260903175501 71 261 2.6 4.3 0.00 0.00 0.00 57 1019.8
20260903175417 71 261 2.6 4.3 0.00 0.00 0.00 57 1019.7
20260903175400 71 260 2.6 4.3 0.00 0.00 0.00 57 1019.7
20260903175300 71 264 2.6 4.3 0.00 0.00 0.00 56 1019.8
20260903175200 71 261 2.6 4.3 0.00 0.00 0.00 56 1019.8
20260903175100 71 233 2.6 4.3 0.00 0.00 0.00 56 1019.8
20260903174956 71 232 2.6 4.3 0.00 0.00 0.00 57 1019.8
20260903174916 71 236 2.6 4.3 0.00 0.00 0.00 56 1019.8
20260903174856 71 236 2.6 4.3 0.00 0.00 0.00 56 1019.8
20260903174757 71 234 1.7 4.3 0.00 0.00 0.00 56 1019.7
20260903174657 71 260 2.6 4.3 0.00 0.00 0.00 56 1019.7
20260903174558 72 246 2.6 6.1 0.00 0.00 0.00 56 1019.7
20260903174457 72 246 2.6 6.1 0.00 0.00 0.00 56 1019.7
20260903174413 72 245 1.7 6.1 0.00 0.00 0.00 56 1019.7
20260903174357 72 245 1.7 6.1 0.00 0.00 0.00 56 1019.7
20260903174257 72 244 1.7 6.1 0.00 0.00 0.00 55 1019.7
20260903174157 72 244 1.7 6.1 0.00 0.00 0.00 55 1019.7
20260903174056 72 244 1.7 6.1 0.00 0.00 0.00 55 1019.7
20260903173956 72 242 1.7 6.1 0.00 0.00 0.00 55 1019.7
20260903173912 72 218 1.7 6.1 0.00 0.00 0.00 55 1019.7
20260903173856 72 218 1.7 6.1 0.00 0.00 0.00 55 1019.7
20260903173756 72 218 1.7 6.1 0.00 0.00 0.00 55 1019.7
20260903173714 72 217 1.7 6.1 0.00 0.00 0.00 55 1019.7
20260903173709 72 214 1.7 4.3 0.00 0.00 0.00 55 1019.7
20260903173458 72 231 1.7 4.3 0.00 0.00 0.00 55 1019.5
20260903173413 72 232 1.7 4.3 0.00 0.00 0.00 55 1019.5
20260903173356 72 231 1.7 4.3 0.00 0.00 0.00 55 1019.5
20260903173257 72 232 1.7 4.3 0.00 0.00 0.00 55 1019.7
20260903173157 72 228 1.7 3.5 0.00 0.00 0.00 55 1019.5
20260903173050 72 228 1.7 3.5 0.00 0.00 0.00 55 1019.7
20260903172950 72 228 1.7 3.5 0.00 0.00 0.00 55 1019.7
20260903172911 72 228 1.7 3.5 0.00 0.00 0.00 55 1019.7
20260903172852 72 228 1.7 3.5 0.00 0.00 0.00 55 1019.7
20260903172750 72 229 1.7 4.3 0.00 0.00 0.00 55 1019.5
20260903172650 73 221 2.6 4.3 0.00 0.00 0.00 55 1019.7
20260903172551 73 221 2.6 4.3 0.00 0.00 0.00 54 1019.7
20260903172451 73 221 2.6 4.3 0.00 0.00 0.00 54 1019.5
20260903172409 73 221 2.6 4.3 0.00 0.00 0.00 54 1019.5
20260903172348 73 221 2.6 4.3 0.00 0.00 0.00 54 1019.5
20260903172249 73 221 2.6 4.3 0.00 0.00 0.00 54 1019.7
20260903172149 73 221 2.6 4.3 0.00 0.00 0.00 54 1019.7
20260903172125 73 223 3.5 7.8 0.00 0.00 0.00 54 1019.5
20260903172121 73 221 2.6 4.3 0.00 0.00 0.00 54 1019.7
20260903172117 73 223 2.6 5.2 0.00 0.00 0.00 54 1019.7
20260903171842 73 223 3.5 7.8 0.00 0.00 0.00 54 1019.5
20260903171740 73 222 3.5 7.8 0.00 0.00 0.00 54 1019.7
20260903171638 73 246 2.6 7.8 0.00 0.00 0.00 55 1019.7
20260903171535 73 241 2.6 7.8 0.00 0.00 0.00 54 1019.7
20260903171436 73 241 2.6 7.8 0.00 0.00 0.00 54 1019.7
20260903171404 73 241 2.6 7.8 0.00 0.00 0.00 54 1019.5
20260903171332 73 223 2.6 7.8 0.00 0.00 0.00 54 1019.5
20260903171233 73 240 2.6 7.8 0.00 0.00 0.00 54 1019.7
20260903171131 73 240 1.7 7.8 0.00 0.00 0.00 53 1019.5
20260903171032 73 225 1.7 7.8 0.00 0.00 0.00 54 1019.5
20260903170930 73 256 1.7 7.8 0.00 0.00 0.00 54 1019.5
20260903170905 73 235 1.7 7.8 0.00 0.00 0.00 54 1019.7
20260903170829 73 234 1.7 3.5 0.00 0.00 0.00 54 1019.7
20260903170726 73 234 1.7 4.3 0.00 0.00 0.00 53 1019.7
20260903170626 73 234 1.7 5.2 0.00 0.00 0.00 54 1019.7
20260903170520 74 233 1.7 5.2 0.00 0.00 0.00 54 1019.7
20260903170404 74 234 1.7 5.2 0.00 0.00 0.00 54 1019.7
20260903170321 74 234 2.6 5.2 0.00 0.00 0.00 54 1019.7
20260903170221 74 234 2.6 8.7 0.00 0.00 0.00 54 1019.5
20260903170120 74 234 3.5 8.7 0.00 0.00 0.00 54 1019.7
20260903170016 74 233 3.5 8.7 0.00 0.00 0.00 54 1019.7
20260903165902 74 231 3.5 8.7 0.00 0.00 0.00 54 1019.7
20260903165814 74 231 3.5 8.7 0.00 0.00 0.00 54 1019.7
20260903165714 74 221 3.5 8.7 0.00 0.00 0.00 54 1019.7
20260903165627 74 275 3.5 8.7 0.00 0.00 0.00 53 1019.7
20260903165623 74 271 3.5 8.7 0.00 0.00 0.00 52 1019.5
20260903165619 74 267 3.5 8.7 0.00 0.00 0.00 53 1019.7
20260903165615 74 277 3.5 8.7 0.00 0.00 0.00 53 1019.7
20260903165308 74 234 3.5 8.7 0.00 0.00 0.00 52 1019.7
20260903165209 74 232 3.5 7.0 0.00 0.00 0.00 53 1019.7
20260903165107 74 290 2.6 7.0 0.00 0.00 0.00 53 1019.7
20260903165008 74 238 2.6 7.0 0.00 0.00 0.00 53 1019.7
20260903164902 74 253 2.6 7.0 0.00 0.00 0.00 53 1019.8
20260903164808 74 257 2.6 7.0 0.00 0.00 0.00 53 1019.8
20260903164708 74 270 2.6 7.0 0.00 0.00 0.00 53 1019.8
20260903164624 74 272 2.6 7.0 0.00 0.00 0.00 53 1019.7
20260903164618 74 252 2.6 5.2 0.00 0.00 0.00 53 1019.8
20260903164614 74 231 2.6 5.2 0.00 0.00 0.00 53 1019.8
20260903164306 74 224 2.6 5.2 0.00 0.00 0.00 53 1019.8
20260903164204 74 244 2.6 5.2 0.00 0.00 0.00 53 1019.7
20260903164102 74 227 2.6 5.2 0.00 0.00 0.00 53 1019.7
20260903164002 74 279 2.6 5.2 0.00 0.00 0.00 53 1019.7
20260903163902 74 231 2.6 6.1 0.00 0.00 0.00 54 1019.8
20260903163802 74 240 2.6 6.1 0.00 0.00 0.00 53 1019.8
20260903163701 74 240 2.6 6.1 0.00 0.00 0.00 53 1019.7
20260903163601 74 265 2.6 6.1 0.00 0.00 0.00 54 1019.7
20260903163502 74 270 2.6 6.1 0.00 0.00 0.00 54 1019.7
20260903163401 74 281 2.6 6.1 0.00 0.00 0.00 53 1019.7
20260903163300 74 246 2.6 6.1 0.00 0.00 0.00 52 1019.7
20260903163200 74 215 3.5 6.1 0.00 0.00 0.00 53 1019.7
20260903163100 74 242 3.5 6.1 0.00 0.00 0.00 53 1019.7
20260903163000 74 240 2.6 6.1 0.00 0.00 0.00 54 1019.7
20260903162904 74 229 2.6 6.1 0.00 0.00 0.00 53 1019.7
20260903162900 74 230 2.6 6.1 0.00 0.00 0.00 53 1019.7
20260903162759 75 232 2.6 6.1 0.00 0.00 0.00 53 1019.7
20260903162658 75 233 2.6 6.1 0.00 0.00 0.00 53 1019.5
20260903162559 75 229 3.5 6.1 0.00 0.00 0.00 53 1019.5
20260903162456 75 256 3.5 7.0 0.00 0.00 0.00 53 1019.5
20260903162400 75 269 3.5 7.8 0.00 0.00 0.00 53 1019.5
20260903162353 75 268 3.5 7.8 0.00 0.00 0.00 53 1019.5
20260903162250 75 270 3.5 7.8 0.00 0.00 0.00 53 1019.5
20260903162150 75 284 4.3 7.8 0.00 0.00 0.00 52 1019.5
20260903162123 75 240 4.3 7.8 0.00 0.00 0.00 52 1019.5
20260903162117 75 259 4.3 7.8 0.00 0.00 0.00 53 1019.5
20260903162113 75 245 4.3 7.8 0.00 0.00 0.00 52 1019.5
20260903161847 75 226 4.3 7.8 0.00 0.00 0.00 52 1019.5
20260903161742 75 228 5.2 7.8 0.00 0.00 0.00 52 1019.5
20260903161642 75 266 5.2 7.8 0.00 0.00 0.00 51 1019.7
20260903161542 75 254 5.2 7.8 0.00 0.00 0.00 51 1019.7
20260903161442 75 271 5.2 7.8 0.00 0.00 0.00 51 1019.7
20260903161400 75 241 5.2 8.7 0.00 0.00 0.00 51 1019.7
20260903161342 75 237 5.2 8.7 0.00 0.00 0.00 51 1019.7
20260903161238 75 252 5.2 8.7 0.00 0.00 0.00 51 1019.7
20260903161138 75 259 5.2 9.6 0.00 0.00 0.00 51 1019.7
20260903161038 75 258 5.2 9.6 0.00 0.00 0.00 52 1019.7
20260903160938 75 252 5.2 9.6 0.00 0.00 0.00 51 1019.7
20260903160901 75 265 5.2 9.6 0.00 0.00 0.00 52 1019.7
20260903160836 75 272 5.2 9.6 0.00 0.00 0.00 52 1019.7
20260903160736 75 267 6.1 9.6 0.00 0.00 0.00 51 1019.7
20260903160636 75 252 6.1 10.4 0.00 0.00 0.00 51 1019.7
20260903160536 75 261 6.1 10.4 0.00 0.00 0.00 51 1019.7
20260903160436 75 277 6.1 11.3 0.00 0.00 0.00 51 1019.7
20260903160401 75 281 6.1 11.3 0.00 0.00 0.00 51 1019.7
20260903160336 75 254 6.1 11.3 0.00 0.00 0.00 51 1019.7
20260903160236 75 215 6.1 11.3 0.00 0.00 0.00 51 1019.8
20260903160136 75 248 6.1 11.3 0.00 0.00 0.00 51 1019.8
20260903160037 75 267 6.1 11.3 0.00 0.00 0.00 51 1019.8
20260903155937 75 276 6.1 11.3 0.00 0.00 0.00 50 1019.8
20260903155902 75 234 6.1 11.3 0.00 0.00 0.00 50 1019.8
20260903155836 75 277 6.1 11.3 0.00 0.00 0.00 50 1019.8
20260903155736 75 263 6.1 11.3 0.00 0.00 0.00 50 1019.8
20260903155635 75 247 6.1 11.3 0.00 0.00 0.00 50 1019.8
20260903155534 75 283 6.1 11.3 0.00 0.00 0.00 50 1019.8
20260903155434 75 277 6.1 11.3 0.00 0.00 0.00 51 1019.7
20260903155400 75 251 6.1 11.3 0.00 0.00 0.00 51 1019.7
20260903155334 75 236 6.1 11.3 0.00 0.00 0.00 51 1019.7
20260903155234 75 275 6.1 11.3 0.00 0.00 0.00 50 1019.7
20260903155134 75 285 6.1 11.3 0.00 0.00 0.00 50 1019.7
20260903155033 75 268 6.1 11.3 0.00 0.00 0.00 50 1019.7
20260903154932 75 263 6.1 11.3 0.00 0.00 0.00 51 1019.7
20260903154901 75 262 6.1 11.3 0.00 0.00 0.00 51 1019.7
20260903154832 75 252 6.1 11.3 0.00 0.00 0.00 51 1019.7
20260903154732 75 263 6.1 11.3 0.00 0.00 0.00 51 1019.7
20260903154632 75 263 6.1 11.3 0.00 0.00 0.00 51 1019.7
20260903154621 75 256 6.1 9.6 0.00 0.00 0.00 51 1019.7
20260903154615 75 250 6.1 9.6 0.00 0.00 0.00 51 1019.7
20260903154612 75 276 6.1 9.6 0.00 0.00 0.00 51 1019.7
20260903154330 75 242 6.1 9.6 0.00 0.00 0.00 51 1019.7
20260903154230 75 264 6.1 9.6 0.00 0.00 0.00 50 1019.8
20260903154130 75 240 6.1 9.6 0.00 0.00 0.00 50 1019.8
20260903154029 75 259 6.1 9.6 0.00 0.00 0.00 50 1019.8
20260903153929 75 267 6.1 9.6 0.00 0.00 0.00 51 1019.8
20260903153901 75 256 6.1 9.6 0.00 0.00 0.00 51 1019.8
20260903153830 75 293 6.1 9.6 0.00 0.00 0.00 50 1019.8
20260903153730 75 269 6.1 9.6 0.00 0.00 0.00 50 1019.8
20260903153630 75 235 6.1 10.4 0.00 0.00 0.00 50 1019.8
20260903153532 75 286 6.1 10.4 0.00 0.00 0.00 51 1019.9
20260903153429 75 254 6.1 10.4 0.00 0.00 0.00 50 1019.8
20260903153402 75 253 6.1 10.4 0.00 0.00 0.00 50 1019.8
20260903153329 75 261 6.1 10.4 0.00 0.00 0.00 50 1019.8
20260903153230 75 275 5.2 10.4 0.00 0.00 0.00 50 1019.8
20260903153129 75 266 5.2 10.4 0.00 0.00 0.00 50 1019.8
20260903153029 75 279 5.2 10.4 0.00 0.00 0.00 50 1019.8
20260903152929 75 267 5.2 10.4 0.00 0.00 0.00 50 1019.8
20260903152901 75 235 5.2 10.4 0.00 0.00 0.00 50 1019.8
20260903152829 75 251 5.2 10.4 0.00 0.00 0.00 50 1019.8
20260903152729 75 262 4.3 10.4 0.00 0.00 0.00 50 1019.8
20260903152629 75 250 5.2 9.6 0.00 0.00 0.00 50 1019.8
20260903152529 76 233 5.2 9.6 0.00 0.00 0.00 50 1019.8
20260903152429 76 281 5.2 9.6 0.00 0.00 0.00 50 1019.8
20260903152400 76 257 6.1 9.6 0.00 0.00 0.00 49 1019.8
20260903152329 76 263 6.1 9.6 0.00 0.00 0.00 49 1019.8
20260903152229 76 239 6.1 9.6 0.00 0.00 0.00 49 1019.9
20260903152129 76 257 6.1 10.4 0.00 0.00 0.00 49 1019.9
20260903152031 76 269 6.1 10.4 0.00 0.00 0.00 50 1019.8
20260903151929 76 271 6.1 10.4 0.00 0.00 0.00 50 1019.8
20260903151900 76 274 7.0 10.4 0.00 0.00 0.00 50 1019.8
20260903151829 76 266 7.0 12.2 0.00 0.00 0.00 49 1019.8
20260903151728 76 267 7.0 12.2 0.00 0.00 0.00 49 1019.8
20260903151628 76 269 7.0 12.2 0.00 0.00 0.00 49 1019.8
20260903151528 76 252 7.0 12.2 0.00 0.00 0.00 48 1019.9
20260903151429 76 286 7.0 12.2 0.00 0.00 0.00 48 1019.9
20260903151400 76 263 7.0 12.2 0.00 0.00 0.00 48 1019.9
20260903151328 76 234 7.0 12.2 0.00 0.00 0.00 48 1019.9
20260903151227 76 248 7.0 12.2 0.00 0.00 0.00 48 1019.9
20260903151123 76 274 7.0 12.2 0.00 0.00 0.00 48 1019.9
20260903151022 76 263 7.0 12.2 0.00 0.00 0.00 49 1019.8
20260903150922 76 303 6.1 12.2 0.00 0.00 0.00 48 1019.9
20260903150902 76 296 6.1 12.2 0.00 0.00 0.00 48 1019.9
20260903150844 76 272 7.0 12.2 0.00 0.00 0.00 49 1019.8
20260903150840 76 263 6.1 11.3 0.00 0.00 0.00 48 1019.8
20260903150836 76 261 6.1 11.3 0.00 0.00 0.00 49 1019.9
20260903150618 76 304 6.1 11.3 0.00 0.00 0.00 49 1019.8
20260903150613 76 256 6.1 11.3 0.00 0.00 0.00 49 1019.8
20260903150609 76 280 7.0 12.2 0.00 0.00 0.00 49 1019.8
20260903150317 76 281 7.0 12.2 0.00 0.00 0.00 50 1019.9
20260903150215 76 257 7.0 12.2 0.00 0.00 0.00 49 1019.8
20260903150110 76 261 7.0 13.0 0.00 0.00 0.00 49 1019.8
20260903150010 76 265 7.0 13.0 0.00 0.00 0.00 49 1019.8
20260903145913 76 274 7.8 13.0 0.00 0.00 0.00 49 1019.8
20260903145852 76 234 7.8 13.0 0.00 0.00 0.00 49 1019.8
20260903145810 76 279 7.8 13.0 0.00 0.00 0.00 49 1019.7
20260903145709 76 265 7.8 13.0 0.00 0.00 0.00 48 1019.8
20260903145604 76 254 7.8 13.0 0.00 0.00 0.00 48 1019.8
20260903145504 76 266 7.8 13.0 0.00 0.00 0.00 49 1019.9
20260903145405 76 273 7.8 13.0 0.00 0.00 0.00 48 1019.9
20260903145346 76 287 7.8 13.0 0.00 0.00 0.00 48 1019.9
20260903145306 77 290 7.0 13.0 0.00 0.00 0.00 48 1019.9
20260903145203 77 259 7.0 13.0 0.00 0.00 0.00 49 1019.9
20260903145104 77 258 7.0 13.0 0.00 0.00 0.00 49 1019.8
20260903145004 77 292 7.0 13.0 0.00 0.00 0.00 49 1019.9
20260903144904 77 259 7.0 13.0 0.00 0.00 0.00 49 1019.9
20260903144840 77 277 7.0 12.2 0.00 0.00 0.00 49 1019.9
20260903144804 77 261 7.0 11.3 0.00 0.00 0.00 50 1019.8
20260903144704 77 261 7.0 12.2 0.00 0.00 0.00 49 1019.8
20260903144604 77 270 7.0 12.2 0.00 0.00 0.00 49 1019.8
20260903144504 77 259 7.0 12.2 0.00 0.00 0.00 49 1019.9
20260903144404 77 240 6.1 12.2 0.00 0.00 0.00 49 1019.8
20260903144340 77 246 6.1 12.2 0.00 0.00 0.00 49 1019.8
20260903144302 77 242 6.1 12.2 0.00 0.00 0.00 49 1019.9
20260903144203 77 246 6.1 12.2 0.00 0.00 0.00 49 1019.9
20260903144102 77 260 6.1 12.2 0.00 0.00 0.00 49 1019.9
20260903144002 77 285 6.1 12.2 0.00 0.00 0.00 49 1019.9
20260903143901 77 246 5.2 12.2 0.00 0.00 0.00 49 1019.9
20260903143838 77 240 5.2 12.2 0.00 0.00 0.00 49 1019.9
20260903143801 77 246 5.2 12.2 0.00 0.00 0.00 49 1019.9
20260903143701 77 249 5.2 10.4 0.00 0.00 0.00 51 1019.8
20260903143601 76 282 5.2 10.4 0.00 0.00 0.00 51 1019.8
20260903143501 76 284 5.2 10.4 0.00 0.00 0.00 50 1019.8
20260903143402 76 293 6.1 10.4 0.00 0.00 0.00 50 1019.8
20260903143338 76 248 6.1 10.4 0.00 0.00 0.00 51 1019.8
20260903143301 76 233 6.1 10.4 0.00 0.00 0.00 51 1019.8
20260903143201 76 238 6.1 10.4 0.00 0.00 0.00 50 1019.7
20260903143101 76 235 6.1 10.4 0.00 0.00 0.00 50 1019.8
20260903143001 76 237 6.1 10.4 0.00 0.00 0.00 50 1019.8
20260903142901 76 265 6.1 10.4 0.00 0.00 0.00 50 1019.9
20260903142838 76 284 6.1 10.4 0.00 0.00 0.00 50 1019.9
20260903142801 76 246 7.0 13.9 0.00 0.00 0.00 50 1019.8
20260903142701 76 269 7.0 13.9 0.00 0.00 0.00 51 1019.9
20260903142602 76 240 6.1 13.9 0.00 0.00 0.00 51 1019.9
20260903142501 76 252 6.1 13.9 0.00 0.00 0.00 50 1019.9
20260903142402 76 263 6.1 13.9 0.00 0.00 0.00 50 1019.9
20260903142336 76 277 6.1 13.9 0.00 0.00 0.00 50 1019.9
20260903142300 76 219 6.1 13.9 0.00 0.00 0.00 50 1019.9
20260903142200 76 279 6.1 13.9 0.00 0.00 0.00 50 1019.9
20260903142101 76 273 6.1 13.9 0.00 0.00 0.00 49 1019.9
20260903142001 76 248 6.1 13.9 0.00 0.00 0.00 49 1020.0
20260903141900 76 243 6.1 13.9 0.00 0.00 0.00 50 1020.0
20260903141836 76 242 6.1 13.9 0.00 0.00 0.00 50 1020.0
20260903141800 76 236 6.1 13.0 0.00 0.00 0.00 48 1019.9
20260903141658 76 217 6.1 10.4 0.00 0.00 0.00 48 1019.9
20260903141558 77 214 7.0 10.4 0.00 0.00 0.00 48 1019.9
20260903141458 77 208 7.0 11.3 0.00 0.00 0.00 48 1020.0
20260903141358 77 218 7.0 12.2 0.00 0.00 0.00 48 1019.9
20260903141336 77 204 7.0 12.2 0.00 0.00 0.00 48 1019.9
20260903141257 77 272 7.8 12.2 0.00 0.00 0.00 48 1020.0
20260903141152 77 195 7.8 12.2 0.00 0.00 0.00 48 1019.9
20260903141103 77 272 7.0 13.0 0.00 0.00 0.00 47 1020.0
20260903141055 77 220 7.8 12.2 0.00 0.00 0.00 48 1019.9
20260903141051 77 219 7.8 13.0 0.00 0.00 0.00 48 1019.9
20260903141047 77 276 7.0 13.0 0.00 0.00 0.00 47 1020.0
20260903140752 77 279 7.0 13.0 0.00 0.00 0.00 48 1020.0
20260903140646 77 253 7.0 13.0 0.00 0.00 0.00 49 1020.0
20260903140546 77 293 7.0 13.0 0.00 0.00 0.00 48 1020.0
20260903140445 77 233 6.1 13.0 0.00 0.00 0.00 48 1020.0
20260903140346 77 232 6.1 13.0 0.00 0.00 0.00 49 1020.1
20260903140336 77 200 6.1 13.0 0.00 0.00 0.00 49 1020.1
20260903140245 77 250 6.1 13.0 0.00 0.00 0.00 49 1020.0
20260903140142 77 205 6.1 13.0 0.00 0.00 0.00 50 1020.0
20260903140042 77 239 6.1 13.0 0.00 0.00 0.00 49 1020.0
20260903135942 77 281 6.1 12.2 0.00 0.00 0.00 48 1020.0
20260903135842 77 259 6.1 12.2 0.00 0.00 0.00 49 1020.1
20260903135834 77 251 6.1 12.2 0.00 0.00 0.00 49 1020.1
20260903135740 77 196 6.1 12.2 0.00 0.00 0.00 49 1020.1
20260903135634 76 273 7.0 12.2 0.00 0.00 0.00 50 1020.1
20260903135534 76 244 7.0 12.2 0.00 0.00 0.00 50 1020.1
20260903135434 76 264 7.0 13.0 0.00 0.00 0.00 50 1020.1
20260903135336 76 252 7.0 16.5 0.00 0.00 0.00 50 1020.1
20260903135331 76 237 7.0 16.5 0.00 0.00 0.00 50 1020.1
20260903135233 76 265 7.0 16.5 0.00 0.00 0.00 51 1020.1
20260903135134 76 221 7.0 16.5 0.00 0.00 0.00 51 1020.1
20260903135031 76 202 7.0 16.5 0.00 0.00 0.00 51 1020.1
20260903134932 76 275 7.0 16.5 0.00 0.00 0.00 51 1020.1
20260903134834 76 221 7.0 16.5 0.00 0.00 0.00 50 1020.1
20260903134830 76 229 7.0 16.5 0.00 0.00 0.00 50 1020.1
20260903134732 76 235 7.0 16.5 0.00 0.00 0.00 50 1020.1
20260903134632 76 239 7.0 16.5 0.00 0.00 0.00 50 1020.1
20260903134530 76 192 7.0 16.5 0.00 0.00 0.00 51 1020.1
20260903134430 76 233 7.0 13.9 0.00 0.00 0.00 51 1020.1
20260903134330 76 246 7.0 11.3 0.00 0.00 0.00 52 1020.2
20260903134229 76 209 7.0 11.3 0.00 0.00 0.00 51 1020.1
20260903134129 76 255 7.0 11.3 0.00 0.00 0.00 50 1020.2
20260903134030 76 279 7.0 12.2 0.00 0.00 0.00 50 1020.3
20260903133931 75 219 7.0 12.2 0.00 0.00 0.00 50 1020.3
20260903133829 75 263 7.0 12.2 0.00 0.00 0.00 51 1020.2
20260903133729 75 273 7.8 12.2 0.00 0.00 0.00 50 1020.2
20260903133629 75 265 7.8 12.2 0.00 0.00 0.00 51 1020.2
20260903133529 75 278 7.8 13.0 0.00 0.00 0.00 51 1020.1
20260903133429 75 256 7.8 13.0 0.00 0.00 0.00 51 1020.1
20260903133330 75 267 7.8 13.0 0.00 0.00 0.00 51 1020.1
20260903133229 75 271 7.8 13.0 0.00 0.00 0.00 51 1020.1
20260903133129 75 246 7.8 13.0 0.00 0.00 0.00 50 1020.1
20260903133028 75 264 7.0 13.0 0.00 0.00 0.00 51 1020.2
20260903132929 75 229 7.0 13.0 0.00 0.00 0.00 51 1020.1
20260903132829 75 266 7.0 13.0 0.00 0.00 0.00 52 1020.1
20260903132729 75 264 6.1 13.0 0.00 0.00 0.00 51 1020.1
20260903132629 75 274 6.1 13.0 0.00 0.00 0.00 51 1020.2
20260903132529 75 255 6.1 10.4 0.00 0.00 0.00 52 1020.2
20260903132429 75 262 6.1 10.4 0.00 0.00 0.00 52 1020.3
20260903132330 75 252 6.1 10.4 0.00 0.00 0.00 53 1020.2
20260903132228 75 278 6.1 10.4 0.00 0.00 0.00 53 1020.2
20260903132128 75 284 6.1 10.4 0.00 0.00 0.00 53 1020.2
20260903132029 75 227 6.1 10.4 0.00 0.00 0.00 53 1020.1
20260903131928 75 276 7.0 10.4 0.00 0.00 0.00 53 1020.2
20260903131828 75 244 7.0 10.4 0.00 0.00 0.00 52 1020.3
20260903131724 75 235 6.1 10.4 0.00 0.00 0.00 53 1020.3
20260903131625 75 219 6.1 10.4 0.00 0.00 0.00 52 1020.2
20260903131524 75 260 7.0 11.3 0.00 0.00 0.00 52 1020.2
20260903131424 75 271 6.1 11.3 0.00 0.00 0.00 52 1020.4
20260903131324 75 223 6.1 11.3 0.00 0.00 0.00 53 1020.3
20260903131217 75 270 6.1 11.3 0.00 0.00 0.00 53 1020.3
20260903131118 75 241 6.1 11.3 0.00 0.00 0.00 52 1020.3
20260903131017 75 260 6.1 11.3 0.00 0.00 0.00 54 1020.3
20260903130917 75 259 6.1 11.3 0.00 0.00 0.00 53 1020.3
20260903130817 75 238 6.1 11.3 0.00 0.00 0.00 53 1020.4
20260903130714 75 275 6.1 11.3 0.00 0.00 0.00 53 1020.3
20260903130616 75 275 6.1 10.4 0.00 0.00 0.00 53 1020.3
20260903130514 75 255 6.1 10.4 0.00 0.00 0.00 53 1020.3
20260903130414 75 207 7.0 10.4 0.00 0.00 0.00 53 1020.3
20260903130312 75 236 7.0 13.0 0.00 0.00 0.00 53 1020.3
20260903130212 75 284 7.0 13.0 0.00 0.00 0.00 52 1020.3
20260903130111 75 260 7.0 13.0 0.00 0.00 0.00 52 1020.3
20260903130012 75 281 7.0 13.0 0.00 0.00 0.00 52 1020.2
20260903125912 75 238 7.0 13.0 0.00 0.00 0.00 52 1020.3
20260903125812 75 276 7.0 13.0 0.00 0.00 0.00 53 1020.3
20260903125807 75 251 7.0 13.0 0.00 0.00 0.00 53 1020.3
20260903125709 75 269 7.0 13.0 0.00 0.00 0.00 52 1020.2
20260903125609 75 240 7.0 13.0 0.00 0.00 0.00 52 1020.3